GFSMA_prec_precacc_132.txt.gz
Total_Precipitation_Accumulation
0.55 0.60 0.39 0.39 0.49 0.58 0.76 0.78 0.66 0.59 0.66 0.63 0.59 0.59 0.51 0.37 0.40 0.38 0.40 0.53 0.87 1.18 0.84 1.13 0.91 0.84 0.86 0.96 0.95 0.81 0.74 0.73 0.48 0.41 0.35 0.28 0.27 0.33 0.26 0.09 0.14 0.13 0.18
0.47 0.40 0.36 0.38 0.33 0.49 0.94 1.00 0.94 0.92 0.89 0.74 0.78 0.71 0.69 0.53 0.46 0.46 0.29 0.32 0.39 0.90 1.29 0.94 1.33 0.78 0.67 0.72 1.00 0.87 0.68 0.71 0.65 0.53 0.29 0.21 0.26 0.40 0.38 0.32 0.09 0.05 0.13
0.50 0.37 0.31 0.30 0.35 0.49 0.91 1.00 1.32 1.51 1.31 1.01 0.97 0.88 0.78 0.72 0.62 0.62 0.46 0.23 0.23 0.38 1.65 1.47 1.56 0.87 0.94 0.86 0.92 1.19 1.11 1.01 0.60 0.53 0.37 0.21 0.23 0.35 0.32 0.25 0.24 0.10 0.03
0.78 0.86 0.66 0.50 0.43 0.80 1.05 0.85 0.89 1.38 1.26 0.95 0.86 1.14 1.06 1.16 1.06 0.96 0.84 0.50 0.41 0.32 0.96 1.87 1.97 2.04 1.19 1.22 1.25 1.22 1.42 1.16 0.94 0.69 0.45 0.22 0.18 0.35 0.30 0.25 0.18 0.17 0.11
0.81 0.80 0.84 0.90 0.98 1.21 1.22 1.18 1.13 1.07 1.09 0.83 0.75 1.01 1.31 1.68 1.84 1.49 1.14 0.95 0.90 0.84 0.67 1.17 1.26 1.56 1.71 1.34 1.49 1.37 1.21 1.28 1.03 0.75 0.62 0.33 0.15 0.32 0.23 0.16 0.13 0.13 0.09
1.12 0.59 0.49 0.58 0.99 1.21 1.42 1.63 1.55 1.26 1.29 1.20 1.22 1.17 1.12 1.29 1.47 1.68 1.49 1.65 1.55 1.57 1.08 1.03 0.61 0.63 0.73 0.92 1.07 1.01 0.83 0.63 0.59 0.71 0.70 0.50 0.26 0.30 0.26 0.17 0.10 0.07 0.07
1.89 1.04 0.56 0.32 0.43 0.50 0.61 1.05 1.50 1.44 1.51 1.84 2.51 2.43 1.86 1.70 2.06 2.41 2.97 2.94 3.29 2.90 2.34 1.68 0.70 0.37 0.29 0.44 0.53 0.76 0.62 0.44 0.31 0.31 0.46 0.53 0.48 0.31 0.24 0.18 0.10 0.08 0.06
1.21 1.45 0.85 0.61 0.43 0.52 0.58 0.72 1.10 1.21 1.24 1.37 1.64 1.67 1.71 1.35 1.06 0.86 0.88 0.90 0.80 0.83 0.76 1.23 1.10 0.45 0.29 0.27 0.37 0.45 0.51 0.56 0.41 0.27 0.22 0.23 0.27 0.31 0.20 0.16 0.16 0.12 0.07
0.98 1.17 1.05 0.91 0.85 1.18 1.22 1.24 1.46 1.49 1.31 1.29 1.19 1.41 1.18 1.00 0.92 0.95 0.92 0.73 0.70 0.61 0.43 0.62 1.15 0.79 0.50 0.32 0.34 0.39 0.39 0.51 0.64 0.44 0.21 0.13 0.13 0.14 0.16 0.10 0.14 0.21 0.21
1.21 1.50 1.15 1.08 0.87 0.81 0.97 0.99 1.12 1.31 1.48 1.53 1.55 1.66 1.34 1.14 0.94 0.81 0.80 0.84 0.60 0.41 0.31 0.27 0.54 0.91 0.70 0.50 0.33 0.27 0.31 0.43 0.54 0.77 0.47 0.20 0.20 0.10 0.11 0.11 0.10 0.10 0.18
0.60 1.16 1.33 1.29 1.07 0.91 0.80 0.83 0.71 0.69 0.60 0.77 0.54 0.46 0.58 0.51 0.50 0.59 0.52 0.40 0.39 0.23 0.14 0.15 0.21 0.45 0.72 0.78 0.48 0.34 0.22 0.27 0.50 0.56 0.81 0.49 0.28 0.23 0.14 0.12 0.17 0.15 0.14
0.86 1.03 1.31 1.12 1.20 1.15 1.11 1.31 1.38 1.06 0.78 0.65 0.71 0.43 0.39 0.37 0.30 0.37 0.39 0.33 0.38 0.30 0.27 0.23 0.18 0.18 0.31 0.62 0.75 0.53 0.42 0.29 0.37 0.57 0.57 0.83 0.57 0.37 0.33 0.21 0.18 0.22 0.26
0.83 1.01 1.26 1.22 1.12 1.23 1.14 1.16 1.39 1.61 1.57 1.08 0.93 0.81 0.64 0.47 0.42 0.48 0.64 0.54 0.44 0.32 0.33 0.28 0.20 0.19 0.23 0.31 0.41 0.58 0.61 0.41 0.38 0.46 0.58 0.55 0.72 0.75 0.57 0.51 0.47 0.44 0.41
0.46 0.88 1.36 1.51 1.27 1.28 1.36 1.38 1.48 1.49 1.80 1.86 1.23 0.96 0.73 0.61 0.62 0.58 0.65 0.83 0.72 0.48 0.28 0.18 0.13 0.21 0.27 0.30 0.28 0.31 0.42 0.52 0.41 0.57 0.64 0.66 0.63 0.75 0.86 0.64 0.47 0.41 0.39
0.39 0.47 0.59 1.00 1.16 1.28 1.54 1.76 1.59 1.37 1.39 1.52 1.29 0.99 0.83 0.58 0.64 0.64 0.58 0.60 0.66 0.61 0.36 0.20 0.19 0.16 0.18 0.21 0.19 0.14 0.18 0.34 0.46 0.43 0.50 0.73 0.63 0.67 0.71 0.72 0.61 0.41 0.35
0.74 0.80 0.72 0.95 1.23 1.53 1.57 1.58 1.34 1.19 1.27 1.35 1.56 1.48 1.07 0.68 0.64 0.76 0.74 0.73 0.75 0.73 0.62 0.34 0.20 0.13 0.19 0.23 0.24 0.21 0.16 0.27 0.23 0.29 0.33 0.36 0.57 0.63 0.63 0.61 0.64 0.68 0.53
1.06 1.02 1.03 1.03 0.84 0.98 1.32 1.60 1.65 1.56 1.64 1.67 1.74 1.50 1.13 1.03 1.04 1.03 1.05 1.02 0.91 0.91 0.78 0.51 0.28 0.23 0.25 0.28 0.26 0.24 0.18 0.13 0.15 0.16 0.22 0.33 0.36 0.52 0.65 0.59 0.52 0.53 0.62
1.64 1.50 1.19 1.00 0.80 0.67 0.83 1.43 1.74 1.61 1.40 1.63 1.93 1.90 1.55 1.36 1.30 1.22 1.14 1.01 0.82 0.78 0.85 0.67 0.48 0.36 0.28 0.24 0.29 0.33 0.31 0.25 0.18 0.24 0.19 0.25 0.31 0.31 0.47 0.70 0.63 0.52 0.50
0.79 0.83 0.83 0.82 0.84 0.61 0.53 0.72 1.17 1.69 1.56 1.37 1.56 1.86 1.61 1.38 1.21 1.15 1.08 0.89 0.76 0.73 0.84 0.87 0.67 0.49 0.43 0.36 0.39 0.49 0.43 0.25 0.15 0.23 0.17 0.17 0.26 0.35 0.39 0.49 0.74 0.80 0.60
0.36 0.43 0.63 0.78 0.99 0.93 0.95 0.92 0.97 1.06 1.46 1.43 1.32 1.32 1.50 1.44 1.06 0.90 0.89 0.93 0.98 0.91 0.74 0.76 0.70 0.61 0.49 0.46 0.73 0.61 0.40 0.31 0.28 0.28 0.37 0.44 0.54 0.66 0.79 0.71 0.72 0.86 1.02
0.66 0.52 0.48 0.45 0.79 1.15 0.84 0.77 0.72 1.01 1.20 1.40 1.41 1.43 1.20 1.48 1.44 1.23 1.10 0.89 0.91 1.02 1.07 0.93 0.87 0.81 0.76 0.80 0.87 0.80 0.82 0.69 0.77 0.87 0.77 0.69 0.73 0.78 0.91 1.33 1.33 1.32 1.17
1.02 0.78 0.85 0.68 0.62 0.86 1.28 0.93 0.79 0.61 0.82 1.03 1.09 1.08 1.48 1.70 1.24 1.26 1.35 1.38 1.31 1.18 1.08 1.07 0.97 0.86 0.70 0.69 0.76 0.89 0.92 1.05 1.14 0.89 0.93 1.00 0.82 0.79 0.83 0.88 1.40 1.45 1.45
1.26 1.24 1.00 0.98 0.91 0.87 1.41 0.97 1.07 0.96 0.85 0.71 0.85 0.96 0.90 1.58 1.91 1.33 1.46 1.55 1.71 1.90 1.61 1.38 1.22 1.24 1.29 1.33 1.38 1.34 1.24 1.20 1.10 0.96 1.17 1.27 1.10 1.10 1.09 1.27 1.45 1.07 1.25
1.62 1.52 1.21 1.00 0.77 0.81 1.03 1.30 1.43 1.08 0.99 0.80 0.73 0.81 0.90 0.99 1.65 1.71 1.38 1.56 1.69 1.99 2.40 2.20 2.03 2.04 2.02 1.79 1.41 1.41 1.59 1.74 1.74 1.70 1.80 1.93 1.48 1.38 1.20 1.17 1.61 1.14 1.02
1.33 1.45 1.29 0.95 0.85 0.87 1.30 1.24 1.25 0.92 1.10 1.06 0.94 1.03 1.02 0.86 1.47 1.71 1.35 1.50 1.60 1.87 2.46 2.37 2.19 2.24 2.22 2.28 1.85 1.65 1.95 2.26 2.65 2.42 2.26 2.23 2.06 1.88 1.79 1.63 1.55 1.47 1.19
1.38 1.22 1.20 1.18 1.38 1.09 1.48 1.36 1.34 0.94 0.86 1.02 1.01 1.15 1.77 1.29 1.34 1.14 1.00 1.01 1.47 1.89 1.78 1.97 1.99 2.06 2.15 2.45 2.68 2.16 2.13 2.52 2.75 2.69 2.25 2.27 2.17 2.20 2.42 1.84 1.39 1.27 1.17

GFSMA_prec_precacc_135.txt.gz
Total_Precipitation_Accumulation
0.61 0.67 0.47 0.47 0.65 0.72 0.90 0.96 0.84 0.82 0.91 0.81 0.73 0.63 0.55 0.43 0.53 0.53 0.46 0.54 0.87 1.19 0.87 1.15 0.91 0.84 0.86 0.96 0.95 0.81 0.74 0.73 0.48 0.41 0.35 0.28 0.27 0.33 0.26 0.09 0.17 0.15 0.18
0.48 0.41 0.38 0.41 0.38 0.53 0.96 1.03 1.00 1.08 1.11 1.11 1.18 1.07 1.04 0.99 0.87 0.86 0.58 0.47 0.48 0.91 1.35 0.99 1.36 0.80 0.67 0.72 1.00 0.87 0.68 0.71 0.65 0.53 0.29 0.21 0.26 0.40 0.38 0.32 0.09 0.05 0.13
0.51 0.37 0.31 0.30 0.35 0.49 0.91 1.00 1.34 1.57 1.40 1.13 1.17 1.17 1.11 1.10 1.29 1.46 1.13 0.82 0.55 0.51 1.69 1.52 1.61 0.90 0.94 0.86 0.92 1.19 1.11 1.01 0.60 0.53 0.37 0.21 0.23 0.35 0.32 0.25 0.25 0.10 0.03
0.79 0.86 0.66 0.50 0.43 0.80 1.05 0.85 0.89 1.38 1.27 0.97 0.89 1.22 1.38 1.58 1.62 1.89 2.00 1.47 1.13 0.81 1.20 1.99 2.06 2.17 1.30 1.26 1.27 1.22 1.42 1.16 0.94 0.69 0.45 0.22 0.18 0.35 0.30 0.25 0.18 0.17 0.11
0.81 0.80 0.84 0.90 0.98 1.21 1.22 1.18 1.13 1.07 1.09 0.83 0.75 1.01 1.32 1.71 1.95 1.99 1.80 1.46 1.27 1.39 1.08 1.44 1.53 1.77 1.84 1.43 1.58 1.43 1.24 1.28 1.03 0.76 0.62 0.33 0.15 0.32 0.23 0.16 0.13 0.13 0.10
1.12 0.59 0.50 0.59 0.99 1.21 1.42 1.63 1.55 1.26 1.29 1.20 1.22 1.17 1.12 1.29 1.47 1.68 1.49 1.66 1.63 1.93 1.91 2.34 2.30 1.78 1.34 1.11 1.15 1.08 0.90 0.66 0.61 0.73 0.72 0.50 0.26 0.30 0.26 0.17 0.10 0.08 0.07
1.89 1.04 0.56 0.32 0.43 0.50 0.61 1.05 1.50 1.44 1.51 1.84 2.51 2.43 1.86 1.70 2.06 2.41 2.97 2.95 3.36 3.32 3.31 2.76 1.81 1.36 0.88 0.67 0.64 0.82 0.66 0.49 0.36 0.35 0.48 0.54 0.50 0.32 0.24 0.18 0.10 0.08 0.08
1.21 1.45 0.85 0.61 0.43 0.52 0.58 0.72 1.10 1.21 1.24 1.37 1.64 1.67 1.71 1.35 1.06 0.86 0.88 0.90 0.80 0.83 0.78 1.28 1.16 0.50 0.31 0.28 0.39 0.55 0.59 0.63 0.47 0.34 0.29 0.25 0.29 0.34 0.21 0.16 0.16 0.12 0.08
0.98 1.17 1.05 0.91 0.85 1.18 1.22 1.24 1.46 1.49 1.31 1.29 1.19 1.41 1.18 1.00 0.92 0.95 0.92 0.73 0.70 0.61 0.44 0.62 1.16 0.79 0.50 0.32 0.35 0.44 0.42 0.54 0.70 0.57 0.33 0.17 0.15 0.15 0.17 0.11 0.14 0.22 0.22
1.21 1.50 1.15 1.08 0.87 0.81 0.97 0.99 1.12 1.31 1.48 1.53 1.55 1.66 1.34 1.14 0.94 0.81 0.80 0.84 0.60 0.42 0.32 0.27 0.54 0.91 0.71 0.50 0.34 0.30 0.35 0.48 0.59 0.88 0.61 0.32 0.27 0.13 0.13 0.11 0.10 0.10 0.18
0.60 1.16 1.33 1.29 1.07 0.91 0.80 0.83 0.71 0.69 0.60 0.77 0.54 0.46 0.59 0.51 0.50 0.60 0.52 0.40 0.39 0.23 0.15 0.16 0.21 0.45 0.72 0.78 0.49 0.35 0.24 0.29 0.54 0.61 0.90 0.58 0.36 0.28 0.16 0.13 0.17 0.15 0.14
0.86 1.03 1.31 1.12 1.20 1.15 1.11 1.31 1.38 1.06 0.78 0.65 0.71 0.44 0.40 0.39 0.31 0.38 0.39 0.33 0.38 0.30 0.27 0.23 0.18 0.18 0.32 0.65 0.79 0.57 0.45 0.30 0.38 0.60 0.61 0.90 0.66 0.46 0.41 0.28 0.21 0.22 0.26
0.83 1.01 1.26 1.22 1.12 1.23 1.14 1.16 1.39 1.61 1.57 1.08 0.93 0.81 0.65 0.48 0.43 0.50 0.64 0.54 0.44 0.32 0.33 0.28 0.20 0.19 0.23 0.36 0.51 0.69 0.67 0.47 0.42 0.51 0.63 0.60 0.77 0.81 0.64 0.58 0.58 0.51 0.43
0.46 0.88 1.36 1.51 1.27 1.28 1.36 1.38 1.48 1.49 1.80 1.86 1.23 0.96 0.73 0.61 0.63 0.59 0.66 0.84 0.72 0.48 0.28 0.18 0.13 0.21 0.27 0.33 0.52 0.69 0.70 0.68 0.52 0.67 0.74 0.78 0.76 0.84 0.94 0.75 0.55 0.47 0.45
0.39 0.47 0.59 1.00 1.16 1.28 1.54 1.76 1.59 1.37 1.39 1.52 1.29 0.99 0.83 0.58 0.64 0.64 0.59 0.61 0.66 0.61 0.36 0.20 0.19 0.16 0.18 0.21 0.20 0.28 0.54 0.78 0.77 0.53 0.58 0.81 0.73 0.79 0.83 0.84 0.71 0.47 0.40
0.74 0.80 0.72 0.95 1.23 1.53 1.57 1.58 1.34 1.19 1.27 1.35 1.56 1.48 1.07 0.68 0.64 0.76 0.75 0.74 0.77 0.74 0.62 0.34 0.20 0.13 0.19 0.23 0.24 0.21 0.17 0.31 0.27 0.33 0.39 0.43 0.62 0.68 0.70 0.71 0.76 0.78 0.61
1.06 1.02 1.03 1.03 0.84 0.98 1.32 1.61 1.65 1.57 1.64 1.67 1.74 1.50 1.13 1.03 1.05 1.03 1.06 1.03 0.92 0.92 0.79 0.51 0.28 0.23 0.25 0.28 0.26 0.24 0.18 0.13 0.16 0.18 0.24 0.35 0.42 0.59 0.72 0.66 0.59 0.62 0.69
1.64 1.50 1.19 1.00 0.80 0.67 0.83 1.43 1.74 1.61 1.40 1.63 1.93 1.90 1.55 1.36 1.30 1.23 1.15 1.02 0.84 0.80 0.87 0.67 0.48 0.36 0.28 0.24 0.29 0.33 0.31 0.26 0.19 0.24 0.20 0.27 0.35 0.36 0.54 0.78 0.71 0.57 0.54
0.79 0.83 0.83 0.82 0.84 0.61 0.53 0.72 1.17 1.69 1.56 1.37 1.56 1.86 1.61 1.38 1.21 1.16 1.09 0.89 0.77 0.74 0.85 0.88 0.67 0.49 0.43 0.36 0.39 0.49 0.43 0.25 0.15 0.23 0.17 0.17 0.26 0.37 0.43 0.55 0.83 0.88 0.66
0.36 0.43 0.63 0.78 0.99 0.93 0.95 0.92 0.97 1.06 1.46 1.43 1.32 1.32 1.50 1.44 1.06 0.91 0.90 0.94 0.98 0.91 0.74 0.76 0.71 0.62 0.49 0.46 0.73 0.61 0.40 0.31 0.28 0.28 0.37 0.44 0.54 0.66 0.81 0.75 0.78 0.94 1.12
0.66 0.52 0.48 0.45 0.79 1.15 0.84 0.77 0.72 1.01 1.20 1.40 1.41 1.43 1.20 1.48 1.44 1.23 1.11 0.90 0.91 1.03 1.07 0.93 0.87 0.81 0.76 0.80 0.87 0.80 0.82 0.69 0.77 0.87 0.77 0.69 0.73 0.78 0.92 1.34 1.34 1.34 1.21
1.02 0.78 0.85 0.68 0.62 0.86 1.28 0.93 0.79 0.61 0.82 1.03 1.09 1.08 1.48 1.70 1.24 1.26 1.35 1.39 1.32 1.20 1.09 1.08 0.97 0.87 0.70 0.69 0.76 0.90 0.92 1.05 1.14 0.89 0.93 1.00 0.82 0.79 0.83 0.88 1.40 1.46 1.46
1.26 1.24 1.00 0.98 0.91 0.87 1.41 0.98 1.07 0.96 0.85 0.71 0.85 0.96 0.90 1.58 1.91 1.33 1.46 1.55 1.71 1.90 1.62 1.39 1.23 1.25 1.31 1.35 1.39 1.34 1.24 1.20 1.10 0.96 1.17 1.27 1.10 1.10 1.09 1.27 1.45 1.08 1.25
1.62 1.52 1.21 1.00 0.77 0.81 1.03 1.30 1.43 1.08 0.99 0.80 0.73 0.81 0.90 0.99 1.65 1.71 1.38 1.56 1.69 1.99 2.40 2.20 2.04 2.05 2.03 1.80 1.41 1.42 1.59 1.74 1.74 1.70 1.80 1.93 1.48 1.38 1.20 1.17 1.61 1.15 1.03
1.33 1.45 1.29 0.95 0.85 0.87 1.30 1.24 1.25 0.92 1.10 1.06 0.94 1.03 1.02 0.86 1.47 1.71 1.35 1.50 1.60 1.87 2.46 2.37 2.19 2.24 2.22 2.28 1.85 1.65 1.95 2.26 2.65 2.42 2.26 2.23 2.06 1.88 1.79 1.63 1.55 1.47 1.19
1.38 1.22 1.20 1.18 1.38 1.09 1.48 1.36 1.34 0.94 0.86 1.02 1.01 1.15 1.77 1.29 1.34 1.14 1.00 1.01 1.47 1.89 1.78 1.97 1.99 2.06 2.15 2.45 2.68 2.16 2.14 2.53 2.75 2.70 2.25 2.28 2.17 2.21 2.43 1.84 1.39 1.27 1.17

GFSMA_prec_precacc_138.txt.gz
Total_Precipitation_Accumulation
0.62 0.69 0.48 0.47 0.66 0.72 0.90 0.96 0.84 0.83 0.96 0.85 0.80 0.83 0.68 0.48 0.60 0.63 0.57 0.72 0.98 1.23 1.01 1.29 1.01 0.93 0.91 0.97 0.95 0.81 0.74 0.73 0.48 0.41 0.35 0.28 0.27 0.33 0.26 0.09 0.17 0.15 0.18
0.48 0.41 0.38 0.41 0.38 0.53 0.96 1.03 1.00 1.08 1.11 1.12 1.23 1.17 1.15 1.10 1.00 1.03 0.89 0.76 0.81 1.15 1.59 1.20 1.56 0.98 0.80 0.78 1.01 0.87 0.68 0.71 0.65 0.53 0.29 0.21 0.26 0.40 0.38 0.32 0.09 0.05 0.13
0.51 0.37 0.31 0.30 0.35 0.49 0.91 1.00 1.34 1.57 1.40 1.13 1.17 1.21 1.17 1.20 1.42 1.65 1.60 1.55 1.80 1.82 2.63 2.25 2.22 1.38 1.10 0.96 0.96 1.20 1.11 1.01 0.60 0.53 0.37 0.21 0.23 0.35 0.32 0.25 0.25 0.10 0.03
0.79 0.86 0.66 0.50 0.43 0.80 1.05 0.85 0.89 1.38 1.27 0.97 0.89 1.22 1.39 1.60 1.66 1.94 2.09 1.61 1.43 1.25 1.67 2.61 2.77 3.07 1.95 1.71 1.49 1.33 1.46 1.16 0.94 0.69 0.45 0.22 0.18 0.35 0.30 0.25 0.18 0.17 0.11
0.81 0.80 0.84 0.90 0.98 1.21 1.22 1.18 1.13 1.07 1.09 0.83 0.75 1.01 1.32 1.71 1.95 1.99 1.80 1.46 1.27 1.42 1.34 1.61 1.70 2.10 2.38 2.06 2.14 1.66 1.37 1.36 1.05 0.78 0.62 0.33 0.15 0.32 0.23 0.16 0.13 0.13 0.10
1.12 0.59 0.50 0.59 0.99 1.21 1.42 1.63 1.55 1.26 1.29 1.20 1.22 1.17 1.12 1.29 1.47 1.68 1.49 1.66 1.63 1.93 1.92 2.35 2.40 2.32 2.11 2.07 2.04 1.78 1.14 0.73 0.67 0.81 0.78 0.55 0.29 0.32 0.26 0.17 0.10 0.08 0.07
1.89 1.04 0.56 0.32 0.43 0.50 0.61 1.05 1.50 1.44 1.51 1.84 2.51 2.43 1.86 1.70 2.06 2.41 2.97 2.95 3.36 3.32 3.32 2.76 1.81 1.40 1.05 1.21 1.41 1.51 0.99 0.58 0.43 0.42 0.57 0.60 0.58 0.39 0.27 0.19 0.11 0.10 0.12
1.21 1.45 0.85 0.61 0.43 0.52 0.58 0.72 1.10 1.21 1.24 1.37 1.64 1.67 1.71 1.35 1.06 0.86 0.88 0.90 0.80 0.84 0.78 1.28 1.16 0.50 0.31 0.29 0.43 0.62 0.69 0.76 0.60 0.47 0.46 0.36 0.38 0.41 0.26 0.19 0.20 0.18 0.17
0.98 1.17 1.05 0.91 0.85 1.18 1.22 1.24 1.46 1.49 1.31 1.29 1.19 1.41 1.18 1.00 0.92 0.95 0.92 0.73 0.70 0.61 0.44 0.62 1.16 0.80 0.50 0.33 0.35 0.44 0.43 0.57 0.79 0.69 0.49 0.36 0.27 0.26 0.24 0.16 0.16 0.28 0.30
1.21 1.50 1.15 1.08 0.87 0.81 0.97 0.99 1.12 1.31 1.48 1.53 1.55 1.66 1.35 1.15 0.94 0.81 0.80 0.84 0.60 0.42 0.32 0.28 0.54 0.92 0.71 0.51 0.35 0.30 0.36 0.49 0.60 0.91 0.70 0.43 0.35 0.24 0.25 0.19 0.13 0.11 0.20
0.60 1.16 1.33 1.29 1.07 0.91 0.80 0.83 0.71 0.69 0.60 0.77 0.55 0.47 0.59 0.51 0.50 0.60 0.52 0.40 0.39 0.23 0.15 0.16 0.21 0.45 0.72 0.79 0.50 0.36 0.25 0.31 0.60 0.66 0.93 0.64 0.44 0.34 0.25 0.21 0.23 0.17 0.17
0.86 1.03 1.31 1.12 1.20 1.15 1.11 1.31 1.38 1.06 0.78 0.65 0.71 0.44 0.41 0.39 0.31 0.38 0.40 0.33 0.38 0.30 0.27 0.23 0.18 0.18 0.32 0.65 0.80 0.60 0.52 0.35 0.42 0.66 0.66 0.95 0.72 0.52 0.50 0.39 0.31 0.28 0.29
0.83 1.01 1.26 1.22 1.12 1.23 1.14 1.16 1.39 1.61 1.57 1.08 0.93 0.81 0.65 0.48 0.43 0.50 0.65 0.54 0.44 0.32 0.33 0.28 0.20 0.19 0.23 0.36 0.52 0.70 0.67 0.47 0.43 0.53 0.67 0.64 0.81 0.85 0.68 0.64 0.68 0.56 0.49
0.46 0.88 1.36 1.51 1.27 1.28 1.36 1.38 1.48 1.49 1.80 1.86 1.23 0.96 0.73 0.61 0.63 0.59 0.66 0.84 0.72 0.48 0.28 0.18 0.13 0.21 0.27 0.33 0.52 0.69 0.70 0.69 0.54 0.71 0.78 0.83 0.82 0.90 1.01 0.79 0.61 0.55 0.54
0.39 0.47 0.59 1.00 1.16 1.28 1.54 1.76 1.59 1.37 1.39 1.53 1.29 0.99 0.83 0.58 0.65 0.64 0.59 0.61 0.67 0.61 0.36 0.20 0.19 0.16 0.18 0.21 0.20 0.28 0.54 0.78 0.93 0.73 0.69 0.89 0.79 0.87 0.96 1.09 0.85 0.54 0.46
0.74 0.80 0.72 0.95 1.23 1.53 1.57 1.59 1.35 1.20 1.28 1.36 1.57 1.49 1.07 0.68 0.65 0.77 0.75 0.74 0.77 0.75 0.62 0.34 0.20 0.13 0.19 0.23 0.24 0.21 0.17 0.31 0.30 0.44 0.53 0.57 0.74 0.77 0.77 0.85 1.29 1.35 0.78
1.06 1.02 1.03 1.03 0.84 0.98 1.32 1.61 1.66 1.58 1.67 1.71 1.76 1.53 1.14 1.03 1.05 1.03 1.06 1.03 0.93 0.93 0.79 0.51 0.28 0.23 0.25 0.28 0.26 0.24 0.18 0.13 0.16 0.19 0.29 0.42 0.51 0.70 0.83 0.73 0.68 0.94 1.07
1.64 1.50 1.19 1.00 0.80 0.67 0.83 1.43 1.75 1.61 1.40 1.64 1.93 1.90 1.55 1.36 1.31 1.23 1.15 1.02 0.84 0.80 0.87 0.67 0.48 0.36 0.28 0.24 0.29 0.33 0.31 0.26 0.19 0.24 0.20 0.29 0.38 0.38 0.58 0.89 0.83 0.66 0.69
0.79 0.83 0.83 0.82 0.84 0.61 0.53 0.72 1.17 1.69 1.56 1.37 1.56 1.86 1.61 1.39 1.21 1.16 1.09 0.89 0.77 0.74 0.85 0.88 0.67 0.49 0.43 0.36 0.39 0.49 0.43 0.25 0.15 0.23 0.17 0.17 0.27 0.37 0.43 0.55 0.92 1.01 0.74
0.36 0.43 0.63 0.78 0.99 0.93 0.95 0.92 0.97 1.06 1.46 1.43 1.32 1.32 1.50 1.44 1.07 0.91 0.90 0.94 0.99 0.92 0.74 0.76 0.71 0.62 0.49 0.46 0.73 0.61 0.40 0.31 0.28 0.28 0.37 0.44 0.54 0.66 0.81 0.75 0.78 0.96 1.14
0.66 0.52 0.48 0.45 0.79 1.15 0.84 0.77 0.72 1.01 1.20 1.40 1.41 1.43 1.20 1.48 1.45 1.23 1.11 0.90 0.92 1.03 1.07 0.93 0.87 0.81 0.76 0.80 0.87 0.81 0.82 0.69 0.77 0.87 0.77 0.69 0.73 0.78 0.92 1.34 1.34 1.35 1.21
1.02 0.78 0.85 0.68 0.62 0.86 1.28 0.93 0.79 0.61 0.82 1.03 1.09 1.08 1.48 1.70 1.24 1.26 1.36 1.39 1.33 1.20 1.09 1.08 0.98 0.87 0.71 0.70 0.76 0.90 0.92 1.05 1.14 0.89 0.93 1.00 0.82 0.79 0.83 0.88 1.40 1.46 1.46
1.26 1.24 1.00 0.98 0.91 0.87 1.41 0.98 1.07 0.96 0.85 0.71 0.85 0.96 0.90 1.58 1.91 1.33 1.46 1.55 1.71 1.90 1.62 1.40 1.24 1.27 1.32 1.37 1.40 1.35 1.25 1.20 1.10 0.97 1.17 1.27 1.10 1.10 1.09 1.27 1.45 1.08 1.25
1.62 1.52 1.21 1.00 0.77 0.81 1.03 1.30 1.43 1.08 0.99 0.80 0.73 0.81 0.90 0.99 1.65 1.71 1.38 1.56 1.69 1.99 2.40 2.20 2.04 2.05 2.04 1.80 1.42 1.43 1.59 1.75 1.74 1.71 1.80 1.93 1.48 1.38 1.20 1.17 1.61 1.15 1.03
1.33 1.45 1.29 0.95 0.85 0.87 1.30 1.24 1.25 0.92 1.10 1.06 0.94 1.03 1.02 0.86 1.47 1.71 1.35 1.50 1.60 1.87 2.46 2.37 2.19 2.24 2.22 2.29 1.86 1.65 1.96 2.26 2.65 2.42 2.26 2.23 2.06 1.88 1.79 1.63 1.55 1.47 1.19
1.38 1.22 1.20 1.18 1.38 1.09 1.48 1.36 1.34 0.94 0.86 1.02 1.01 1.15 1.77 1.29 1.34 1.14 1.00 1.01 1.47 1.89 1.78 1.97 1.99 2.06 2.15 2.45 2.68 2.17 2.14 2.54 2.76 2.70 2.25 2.29 2.17 2.21 2.43 1.84 1.39 1.27 1.17

GFSMA_prec_precacc_144.txt.gz
Total_Precipitation_Accumulation
0.62 0.69 0.49 0.48 0.66 0.72 0.90 0.96 0.84 0.83 0.96 0.85 0.82 0.85 0.69 0.48 0.60 0.64 0.63 0.78 1.07 1.34 1.04 1.33 1.09 1.02 1.02 1.06 1.05 0.94 0.88 0.91 0.64 0.54 0.44 0.35 0.34 0.38 0.32 0.10 0.18 0.15 0.18
0.48 0.41 0.38 0.41 0.38 0.53 0.96 1.03 1.00 1.08 1.11 1.12 1.23 1.17 1.17 1.13 1.01 1.03 0.89 0.78 0.88 1.28 1.76 1.34 1.69 1.14 1.02 1.06 1.32 1.15 0.99 0.99 0.89 0.75 0.47 0.36 0.43 0.49 0.48 0.41 0.12 0.07 0.13
0.51 0.37 0.31 0.30 0.35 0.49 0.91 1.00 1.34 1.57 1.40 1.13 1.17 1.21 1.17 1.20 1.43 1.66 1.63 1.60 1.92 1.96 2.74 2.35 2.34 1.62 1.78 1.66 1.61 1.86 1.69 1.61 1.09 0.86 0.59 0.39 0.36 0.44 0.36 0.28 0.29 0.14 0.04
0.79 0.86 0.66 0.50 0.43 0.80 1.05 0.85 0.89 1.38 1.27 0.97 0.89 1.22 1.39 1.60 1.66 1.94 2.10 1.61 1.44 1.27 1.69 2.62 2.77 3.21 2.72 2.71 2.50 2.20 2.40 2.21 1.71 1.11 0.67 0.33 0.22 0.37 0.33 0.28 0.23 0.31 0.18
0.81 0.80 0.84 0.90 0.98 1.21 1.22 1.18 1.13 1.07 1.09 0.83 0.75 1.01 1.32 1.71 1.95 1.99 1.80 1.46 1.27 1.42 1.34 1.61 1.70 2.12 2.57 2.60 3.13 3.00 2.41 2.30 1.75 1.06 0.78 0.46 0.28 0.46 0.34 0.23 0.20 0.23 0.28
1.12 0.59 0.50 0.59 0.99 1.21 1.42 1.63 1.55 1.26 1.29 1.20 1.22 1.17 1.12 1.29 1.47 1.68 1.49 1.66 1.63 1.93 1.92 2.35 2.41 2.33 2.14 2.12 2.10 1.97 1.48 0.97 0.79 0.90 0.92 0.72 0.52 0.63 0.48 0.33 0.25 0.16 0.16
1.89 1.04 0.56 0.32 0.43 0.50 0.61 1.05 1.50 1.44 1.51 1.84 2.51 2.43 1.86 1.70 2.06 2.41 2.97 2.95 3.36 3.33 3.32 2.77 1.83 1.41 1.06 1.23 1.44 1.54 1.14 0.79 0.55 0.50 0.66 0.73 0.73 0.62 0.58 0.47 0.31 0.25 0.20
1.21 1.45 0.85 0.61 0.43 0.52 0.58 0.72 1.10 1.21 1.24 1.37 1.64 1.67 1.71 1.35 1.06 0.86 0.88 0.90 0.81 0.84 0.78 1.29 1.18 0.52 0.35 0.35 0.50 0.72 0.78 0.89 0.70 0.60 0.67 0.63 0.60 0.62 0.48 0.43 0.47 0.40 0.42
0.98 1.17 1.05 0.91 0.85 1.18 1.22 1.24 1.46 1.49 1.31 1.29 1.19 1.41 1.18 1.00 0.92 0.95 0.92 0.73 0.71 0.62 0.44 0.63 1.17 0.80 0.51 0.33 0.37 0.46 0.47 0.61 0.80 0.73 0.62 0.62 0.47 0.44 0.44 0.35 0.38 0.57 0.59
1.21 1.50 1.15 1.08 0.87 0.81 0.97 0.99 1.12 1.31 1.48 1.53 1.55 1.66 1.35 1.15 0.94 0.81 0.80 0.84 0.60 0.42 0.32 0.28 0.54 0.92 0.72 0.52 0.36 0.33 0.41 0.52 0.62 0.93 0.71 0.48 0.47 0.39 0.41 0.37 0.30 0.27 0.39
0.60 1.16 1.33 1.29 1.07 0.91 0.80 0.83 0.71 0.69 0.60 0.78 0.55 0.47 0.59 0.51 0.51 0.61 0.53 0.40 0.39 0.23 0.15 0.16 0.21 0.45 0.72 0.79 0.50 0.37 0.25 0.33 0.65 0.72 0.98 0.66 0.49 0.43 0.38 0.30 0.31 0.26 0.27
0.86 1.03 1.31 1.12 1.20 1.15 1.11 1.31 1.38 1.06 0.78 0.65 0.71 0.44 0.41 0.40 0.31 0.39 0.40 0.34 0.38 0.30 0.27 0.23 0.18 0.18 0.32 0.65 0.80 0.60 0.52 0.36 0.43 0.68 0.68 0.96 0.74 0.55 0.56 0.47 0.37 0.36 0.36
0.83 1.01 1.26 1.22 1.12 1.23 1.14 1.16 1.39 1.61 1.57 1.08 0.93 0.81 0.65 0.48 0.43 0.50 0.65 0.55 0.44 0.32 0.33 0.28 0.20 0.19 0.23 0.36 0.52 0.70 0.67 0.47 0.43 0.54 0.67 0.65 0.84 0.88 0.70 0.68 0.73 0.63 0.60
0.46 0.88 1.36 1.51 1.27 1.28 1.36 1.38 1.48 1.49 1.80 1.86 1.23 0.96 0.73 0.61 0.64 0.60 0.67 0.85 0.73 0.48 0.28 0.18 0.13 0.21 0.27 0.33 0.52 0.69 0.70 0.69 0.54 0.71 0.78 0.84 0.83 0.93 1.07 0.85 0.64 0.60 0.62
0.39 0.47 0.59 1.00 1.16 1.28 1.54 1.76 1.59 1.37 1.39 1.53 1.29 0.99 0.83 0.59 0.67 0.66 0.61 0.63 0.71 0.63 0.36 0.21 0.19 0.16 0.18 0.21 0.20 0.28 0.54 0.78 0.94 0.73 0.69 0.89 0.80 0.89 0.99 1.13 0.92 0.62 0.54
0.74 0.80 0.72 0.95 1.23 1.53 1.57 1.59 1.35 1.20 1.28 1.36 1.58 1.50 1.09 0.70 0.67 0.79 0.78 0.78 0.81 0.79 0.65 0.34 0.20 0.13 0.19 0.23 0.24 0.21 0.17 0.31 0.30 0.45 0.54 0.58 0.76 0.80 0.80 0.89 1.33 1.56 1.12
1.06 1.02 1.03 1.03 0.84 0.98 1.32 1.61 1.66 1.58 1.67 1.71 1.77 1.55 1.18 1.08 1.11 1.09 1.13 1.10 0.99 0.99 0.84 0.53 0.28 0.23 0.25 0.28 0.26 0.24 0.18 0.13 0.16 0.20 0.30 0.44 0.55 0.77 0.92 0.82 0.77 1.10 1.82
1.64 1.50 1.19 1.00 0.80 0.67 0.83 1.43 1.75 1.61 1.40 1.64 1.93 1.91 1.56 1.38 1.34 1.28 1.23 1.12 0.94 0.88 0.94 0.71 0.49 0.36 0.28 0.24 0.29 0.33 0.31 0.26 0.19 0.25 0.21 0.30 0.41 0.45 0.66 0.97 0.92 0.74 0.82
0.79 0.83 0.83 0.82 0.84 0.61 0.53 0.72 1.17 1.69 1.56 1.37 1.56 1.86 1.61 1.39 1.21 1.16 1.09 0.90 0.77 0.74 0.86 0.89 0.68 0.49 0.43 0.36 0.39 0.49 0.43 0.25 0.15 0.23 0.18 0.18 0.28 0.40 0.48 0.63 1.03 1.17 0.88
0.36 0.43 0.63 0.78 0.99 0.93 0.95 0.92 0.97 1.06 1.46 1.43 1.32 1.32 1.50 1.44 1.07 0.92 0.90 0.94 0.99 0.92 0.74 0.76 0.71 0.62 0.49 0.46 0.73 0.61 0.40 0.31 0.28 0.28 0.37 0.44 0.54 0.68 0.82 0.78 0.82 1.03 1.26
0.66 0.52 0.48 0.45 0.79 1.15 0.84 0.77 0.72 1.01 1.20 1.40 1.41 1.43 1.20 1.48 1.45 1.24 1.11 0.91 0.92 1.03 1.07 0.93 0.87 0.81 0.76 0.80 0.88 0.81 0.82 0.69 0.77 0.87 0.77 0.69 0.73 0.78 0.93 1.35 1.36 1.38 1.25
1.02 0.78 0.85 0.68 0.62 0.87 1.28 0.93 0.79 0.61 0.82 1.03 1.09 1.08 1.48 1.70 1.24 1.26 1.36 1.39 1.33 1.21 1.09 1.09 0.98 0.88 0.72 0.70 0.76 0.90 0.93 1.05 1.14 0.89 0.93 1.00 0.82 0.79 0.83 0.88 1.40 1.47 1.46
1.26 1.24 1.00 0.98 0.91 0.87 1.41 0.98 1.07 0.96 0.85 0.71 0.85 0.96 0.90 1.58 1.91 1.33 1.46 1.55 1.71 1.90 1.63 1.41 1.24 1.29 1.34 1.38 1.40 1.35 1.25 1.20 1.11 0.98 1.17 1.27 1.10 1.10 1.09 1.27 1.45 1.08 1.25
1.62 1.52 1.21 1.00 0.77 0.81 1.03 1.30 1.43 1.08 0.99 0.80 0.73 0.81 0.90 0.99 1.65 1.71 1.38 1.56 1.69 1.99 2.40 2.21 2.04 2.06 2.05 1.80 1.42 1.43 1.59 1.75 1.74 1.71 1.80 1.94 1.48 1.38 1.20 1.17 1.61 1.15 1.03
1.33 1.45 1.29 0.95 0.85 0.87 1.30 1.24 1.25 0.92 1.10 1.06 0.95 1.03 1.02 0.86 1.47 1.71 1.35 1.50 1.60 1.87 2.46 2.37 2.19 2.24 2.22 2.29 1.86 1.65 1.96 2.26 2.65 2.42 2.26 2.24 2.06 1.88 1.79 1.63 1.55 1.47 1.19
1.38 1.22 1.20 1.18 1.38 1.09 1.48 1.36 1.34 0.94 0.86 1.02 1.01 1.15 1.77 1.29 1.35 1.14 1.00 1.01 1.47 1.89 1.78 1.97 1.99 2.06 2.15 2.45 2.68 2.17 2.14 2.54 2.77 2.70 2.25 2.29 2.17 2.21 2.43 1.84 1.39 1.27 1.17

GFSMA_prec_precacc_147.txt.gz
Total_Precipitation_Accumulation
0.62 0.69 0.49 0.48 0.66 0.72 0.90 0.96 0.84 0.83 0.96 0.85 0.82 0.85 0.69 0.48 0.60 0.64 0.63 0.79 1.09 1.34 1.04 1.33 1.10 1.13 1.20 1.16 1.12 1.02 1.02 1.04 0.72 0.58 0.47 0.44 0.50 0.51 0.41 0.14 0.18 0.15 0.18
0.48 0.41 0.38 0.41 0.38 0.53 0.96 1.03 1.00 1.08 1.11 1.12 1.23 1.17 1.17 1.13 1.01 1.03 0.89 0.78 0.88 1.28 1.76 1.36 1.71 1.24 1.27 1.30 1.56 1.31 1.11 1.06 0.94 0.78 0.49 0.41 0.52 0.63 0.58 0.52 0.21 0.12 0.15
0.51 0.37 0.31 0.30 0.35 0.49 0.91 1.00 1.34 1.57 1.40 1.13 1.17 1.21 1.17 1.20 1.43 1.66 1.63 1.60 1.92 1.96 2.75 2.36 2.35 1.63 1.83 1.77 1.74 1.96 1.84 1.82 1.27 0.92 0.61 0.40 0.40 0.49 0.43 0.38 0.39 0.23 0.10
0.79 0.86 0.66 0.50 0.43 0.80 1.05 0.85 0.89 1.38 1.27 0.97 0.89 1.22 1.39 1.60 1.66 1.94 2.10 1.61 1.44 1.27 1.69 2.62 2.78 3.22 2.73 2.72 2.54 2.25 2.45 2.28 1.78 1.17 0.69 0.34 0.22 0.38 0.38 0.35 0.31 0.40 0.30
0.81 0.80 0.84 0.90 0.98 1.21 1.22 1.18 1.13 1.07 1.09 0.83 0.75 1.01 1.32 1.71 1.95 1.99 1.80 1.46 1.27 1.42 1.35 1.62 1.71 2.12 2.57 2.60 3.13 3.02 2.45 2.31 1.76 1.07 0.78 0.46 0.28 0.47 0.38 0.30 0.30 0.33 0.38
1.12 0.59 0.50 0.59 0.99 1.21 1.42 1.63 1.55 1.26 1.29 1.20 1.22 1.17 1.12 1.29 1.47 1.68 1.49 1.66 1.63 1.93 1.92 2.35 2.41 2.34 2.15 2.12 2.10 1.97 1.50 0.98 0.81 0.91 0.92 0.72 0.52 0.63 0.51 0.37 0.32 0.32 0.33
1.89 1.04 0.56 0.32 0.43 0.50 0.61 1.05 1.50 1.44 1.51 1.84 2.51 2.43 1.86 1.70 2.06 2.41 2.97 2.95 3.36 3.33 3.32 2.77 1.83 1.41 1.09 1.27 1.46 1.57 1.23 0.87 0.61 0.56 0.69 0.74 0.73 0.62 0.61 0.56 0.41 0.35 0.32
1.21 1.45 0.85 0.61 0.43 0.52 0.58 0.72 1.10 1.21 1.24 1.37 1.64 1.67 1.71 1.35 1.06 0.86 0.88 0.90 0.81 0.84 0.78 1.29 1.18 0.52 0.35 0.36 0.54 0.77 0.81 0.92 0.72 0.62 0.71 0.65 0.61 0.66 0.59 0.56 0.63 0.56 0.53
0.98 1.17 1.05 0.91 0.85 1.18 1.22 1.24 1.46 1.49 1.31 1.29 1.19 1.41 1.18 1.00 0.92 0.95 0.92 0.73 0.71 0.62 0.44 0.63 1.17 0.80 0.51 0.33 0.39 0.48 0.50 0.62 0.81 0.74 0.63 0.63 0.53 0.47 0.47 0.40 0.46 0.66 0.68
1.21 1.50 1.15 1.08 0.87 0.81 0.97 0.99 1.12 1.31 1.48 1.53 1.55 1.66 1.35 1.15 0.95 0.81 0.80 0.84 0.60 0.42 0.32 0.28 0.54 0.92 0.72 0.52 0.36 0.34 0.42 0.53 0.63 0.94 0.71 0.49 0.50 0.43 0.44 0.38 0.31 0.28 0.42
0.60 1.16 1.33 1.29 1.07 0.91 0.80 0.83 0.71 0.69 0.60 0.78 0.55 0.47 0.59 0.51 0.51 0.61 0.53 0.40 0.39 0.23 0.15 0.16 0.21 0.45 0.72 0.79 0.50 0.37 0.25 0.33 0.65 0.73 0.99 0.68 0.49 0.44 0.42 0.37 0.36 0.27 0.27
0.86 1.03 1.31 1.12 1.20 1.15 1.11 1.31 1.38 1.06 0.78 0.65 0.71 0.44 0.41 0.40 0.31 0.39 0.40 0.34 0.38 0.30 0.27 0.23 0.18 0.18 0.32 0.65 0.80 0.60 0.52 0.36 0.43 0.68 0.68 0.97 0.74 0.55 0.56 0.48 0.42 0.39 0.37
0.83 1.01 1.26 1.22 1.12 1.23 1.14 1.16 1.39 1.61 1.57 1.08 0.93 0.81 0.65 0.48 0.44 0.50 0.65 0.55 0.45 0.32 0.33 0.28 0.20 0.19 0.23 0.36 0.52 0.70 0.67 0.47 0.43 0.54 0.67 0.65 0.84 0.88 0.71 0.69 0.73 0.64 0.61
0.46 0.88 1.36 1.51 1.27 1.28 1.36 1.38 1.48 1.49 1.80 1.86 1.23 0.96 0.73 0.61 0.64 0.61 0.67 0.85 0.73 0.48 0.28 0.18 0.13 0.21 0.27 0.33 0.52 0.69 0.70 0.69 0.54 0.71 0.78 0.84 0.83 0.93 1.07 0.85 0.65 0.60 0.64
0.39 0.47 0.59 1.00 1.16 1.28 1.54 1.76 1.59 1.37 1.39 1.53 1.29 0.99 0.83 0.59 0.67 0.67 0.61 0.64 0.72 0.64 0.36 0.21 0.19 0.16 0.18 0.21 0.20 0.28 0.54 0.78 0.94 0.73 0.69 0.89 0.81 0.90 0.99 1.13 0.92 0.62 0.55
0.74 0.80 0.72 0.95 1.23 1.53 1.57 1.59 1.35 1.20 1.28 1.36 1.58 1.50 1.09 0.70 0.67 0.79 0.78 0.78 0.83 0.81 0.66 0.37 0.23 0.15 0.19 0.23 0.24 0.21 0.17 0.31 0.30 0.45 0.54 0.59 0.76 0.80 0.80 0.89 1.33 1.57 1.12
1.06 1.02 1.03 1.03 0.84 0.98 1.32 1.61 1.66 1.58 1.67 1.71 1.77 1.55 1.18 1.08 1.11 1.09 1.13 1.11 1.02 1.02 0.88 0.57 0.33 0.26 0.26 0.28 0.26 0.24 0.19 0.14 0.17 0.20 0.30 0.44 0.55 0.77 0.93 0.82 0.77 1.10 1.82
1.64 1.50 1.19 1.00 0.80 0.67 0.83 1.43 1.75 1.61 1.40 1.64 1.93 1.91 1.56 1.38 1.34 1.28 1.23 1.12 0.94 0.90 0.99 0.77 0.54 0.39 0.30 0.24 0.29 0.33 0.31 0.26 0.19 0.25 0.21 0.30 0.42 0.46 0.66 0.98 0.92 0.75 0.83
0.79 0.83 0.83 0.82 0.84 0.61 0.53 0.72 1.17 1.69 1.56 1.37 1.56 1.86 1.61 1.39 1.21 1.16 1.09 0.90 0.77 0.75 0.86 0.89 0.69 0.50 0.43 0.36 0.40 0.49 0.43 0.25 0.15 0.23 0.18 0.18 0.28 0.40 0.49 0.63 1.04 1.17 0.88
0.36 0.43 0.63 0.78 0.99 0.93 0.95 0.92 0.97 1.06 1.46 1.43 1.32 1.32 1.50 1.44 1.07 0.92 0.90 0.94 0.99 0.92 0.74 0.76 0.71 0.62 0.49 0.46 0.73 0.61 0.40 0.31 0.28 0.28 0.37 0.44 0.54 0.68 0.82 0.78 0.82 1.03 1.27
0.66 0.52 0.48 0.45 0.79 1.15 0.84 0.77 0.72 1.01 1.20 1.40 1.41 1.43 1.20 1.48 1.45 1.24 1.11 0.91 0.92 1.03 1.07 0.93 0.87 0.81 0.76 0.80 0.88 0.81 0.82 0.69 0.77 0.87 0.77 0.69 0.73 0.78 0.93 1.35 1.36 1.38 1.25
1.02 0.78 0.85 0.68 0.62 0.87 1.28 0.93 0.79 0.61 0.82 1.03 1.09 1.08 1.48 1.70 1.24 1.26 1.36 1.39 1.33 1.21 1.10 1.09 0.98 0.88 0.72 0.70 0.76 0.90 0.93 1.05 1.14 0.89 0.93 1.00 0.82 0.79 0.83 0.88 1.40 1.47 1.46
1.26 1.24 1.00 0.98 0.91 0.87 1.41 0.98 1.07 0.96 0.85 0.71 0.85 0.96 0.90 1.58 1.91 1.33 1.46 1.55 1.71 1.90 1.63 1.41 1.24 1.29 1.34 1.38 1.40 1.35 1.25 1.20 1.11 0.98 1.17 1.27 1.10 1.10 1.09 1.27 1.45 1.08 1.25
1.62 1.52 1.21 1.00 0.77 0.81 1.03 1.30 1.43 1.08 0.99 0.80 0.73 0.81 0.90 0.99 1.65 1.71 1.38 1.56 1.69 1.99 2.40 2.21 2.04 2.06 2.05 1.80 1.42 1.43 1.59 1.75 1.75 1.71 1.80 1.94 1.48 1.38 1.20 1.17 1.61 1.15 1.03
1.33 1.45 1.29 0.95 0.85 0.87 1.30 1.24 1.25 0.92 1.10 1.06 0.95 1.03 1.02 0.86 1.47 1.71 1.35 1.50 1.60 1.87 2.46 2.37 2.19 2.24 2.22 2.29 1.86 1.65 1.96 2.26 2.65 2.42 2.26 2.24 2.06 1.88 1.79 1.63 1.55 1.47 1.19
1.38 1.22 1.20 1.18 1.38 1.09 1.48 1.36 1.34 0.94 0.86 1.02 1.01 1.15 1.77 1.29 1.35 1.14 1.00 1.01 1.47 1.89 1.78 1.97 1.99 2.06 2.15 2.45 2.68 2.17 2.14 2.54 2.77 2.70 2.25 2.29 2.17 2.21 2.43 1.84 1.39 1.27 1.17

GFSMA_prec_precacc_153.txt.gz
Total_Precipitation_Accumulation
0.62 0.69 0.49 0.48 0.66 0.72 0.90 0.96 0.84 0.83 0.96 0.85 0.82 0.85 0.69 0.48 0.60 0.64 0.63 0.79 1.09 1.34 1.04 1.34 1.16 1.38 1.43 1.30 1.20 1.12 1.09 1.11 0.84 0.67 0.48 0.44 0.51 0.53 0.44 0.18 0.23 0.16 0.18
0.48 0.41 0.38 0.41 0.38 0.53 0.96 1.03 1.00 1.08 1.11 1.12 1.23 1.17 1.17 1.13 1.01 1.03 0.89 0.78 0.88 1.28 1.76 1.36 1.72 1.29 1.39 1.46 1.69 1.41 1.17 1.11 0.99 0.87 0.58 0.44 0.53 0.63 0.58 0.52 0.24 0.18 0.20
0.51 0.37 0.31 0.30 0.35 0.49 0.91 1.00 1.34 1.57 1.40 1.13 1.17 1.21 1.17 1.20 1.43 1.66 1.63 1.60 1.92 1.96 2.75 2.36 2.36 1.65 1.86 1.79 1.76 1.98 1.89 1.96 1.44 1.03 0.68 0.49 0.44 0.50 0.46 0.38 0.39 0.23 0.12
0.79 0.86 0.66 0.50 0.43 0.80 1.05 0.85 0.89 1.38 1.27 0.97 0.89 1.22 1.39 1.60 1.66 1.94 2.10 1.61 1.44 1.27 1.69 2.63 2.78 3.22 2.74 2.73 2.55 2.28 2.49 2.32 1.85 1.29 0.84 0.54 0.42 0.51 0.45 0.40 0.32 0.40 0.30
0.81 0.80 0.84 0.90 0.98 1.21 1.22 1.18 1.13 1.07 1.09 0.83 0.75 1.01 1.32 1.71 1.95 1.99 1.80 1.46 1.27 1.42 1.35 1.63 1.71 2.13 2.58 2.60 3.13 3.03 2.48 2.36 1.83 1.15 0.87 0.59 0.43 0.62 0.54 0.46 0.43 0.39 0.42
1.12 0.59 0.50 0.59 0.99 1.21 1.42 1.63 1.55 1.26 1.29 1.20 1.22 1.17 1.12 1.29 1.47 1.68 1.49 1.66 1.63 1.93 1.92 2.35 2.41 2.35 2.16 2.13 2.11 1.98 1.52 1.04 0.90 1.03 1.04 0.81 0.60 0.74 0.62 0.51 0.46 0.42 0.44
1.89 1.04 0.56 0.32 0.43 0.50 0.61 1.05 1.50 1.44 1.51 1.84 2.51 2.43 1.86 1.70 2.06 2.41 2.97 2.95 3.36 3.33 3.32 2.77 1.83 1.41 1.09 1.28 1.48 1.58 1.25 0.91 0.66 0.62 0.76 0.80 0.78 0.67 0.64 0.59 0.50 0.48 0.45
1.21 1.45 0.85 0.61 0.43 0.52 0.58 0.72 1.10 1.21 1.24 1.37 1.64 1.67 1.71 1.35 1.06 0.86 0.88 0.90 0.81 0.84 0.78 1.29 1.18 0.52 0.35 0.36 0.57 0.80 0.84 0.94 0.74 0.64 0.73 0.68 0.67 0.72 0.65 0.59 0.64 0.62 0.66
0.98 1.17 1.05 0.91 0.85 1.18 1.22 1.24 1.46 1.49 1.31 1.29 1.19 1.41 1.18 1.00 0.92 0.95 0.92 0.73 0.71 0.62 0.44 0.63 1.17 0.80 0.51 0.33 0.39 0.50 0.55 0.68 0.86 0.78 0.67 0.66 0.59 0.58 0.58 0.52 0.57 0.74 0.73
1.21 1.50 1.15 1.08 0.87 0.81 0.97 0.99 1.12 1.31 1.48 1.53 1.55 1.66 1.35 1.15 0.95 0.82 0.80 0.84 0.60 0.42 0.32 0.28 0.54 0.92 0.72 0.52 0.37 0.34 0.44 0.57 0.71 1.04 0.82 0.58 0.59 0.52 0.53 0.48 0.41 0.39 0.54
0.60 1.16 1.33 1.29 1.07 0.91 0.80 0.83 0.71 0.69 0.60 0.78 0.55 0.47 0.59 0.51 0.51 0.61 0.53 0.40 0.39 0.23 0.15 0.16 0.21 0.45 0.72 0.79 0.50 0.38 0.27 0.34 0.67 0.76 1.05 0.78 0.61 0.53 0.49 0.43 0.47 0.41 0.40
0.86 1.03 1.31 1.12 1.20 1.15 1.11 1.31 1.38 1.06 0.78 0.65 0.71 0.44 0.41 0.40 0.31 0.39 0.40 0.34 0.38 0.30 0.27 0.23 0.18 0.18 0.32 0.65 0.80 0.60 0.53 0.36 0.44 0.71 0.73 1.01 0.78 0.60 0.61 0.53 0.48 0.56 0.67
0.83 1.01 1.26 1.22 1.12 1.23 1.14 1.16 1.39 1.61 1.57 1.08 0.93 0.81 0.65 0.48 0.44 0.50 0.65 0.55 0.45 0.32 0.33 0.28 0.20 0.19 0.23 0.36 0.52 0.71 0.69 0.47 0.43 0.54 0.70 0.70 0.89 0.92 0.74 0.72 0.76 0.66 0.67
0.46 0.88 1.36 1.51 1.27 1.28 1.36 1.38 1.48 1.49 1.80 1.86 1.23 0.96 0.73 0.61 0.64 0.61 0.68 0.86 0.73 0.48 0.28 0.18 0.13 0.21 0.27 0.33 0.52 0.69 0.73 0.69 0.54 0.71 0.79 0.86 0.86 0.94 1.08 0.86 0.66 0.61 0.64
0.39 0.47 0.59 1.00 1.16 1.28 1.54 1.76 1.59 1.37 1.39 1.53 1.29 0.99 0.83 0.59 0.67 0.67 0.61 0.65 0.73 0.64 0.36 0.22 0.19 0.16 0.18 0.21 0.20 0.28 0.55 0.79 0.94 0.75 0.70 0.90 0.82 0.92 1.00 1.15 0.93 0.63 0.55
0.74 0.80 0.72 0.95 1.23 1.53 1.57 1.59 1.35 1.20 1.28 1.36 1.58 1.50 1.09 0.70 0.67 0.79 0.78 0.79 0.83 0.82 0.67 0.38 0.23 0.15 0.19 0.23 0.24 0.22 0.20 0.31 0.31 0.47 0.56 0.60 0.77 0.82 0.82 0.91 1.35 1.57 1.12
1.06 1.02 1.03 1.03 0.84 0.98 1.32 1.61 1.66 1.58 1.67 1.71 1.77 1.55 1.18 1.08 1.11 1.09 1.13 1.12 1.02 1.03 0.89 0.57 0.33 0.26 0.26 0.28 0.26 0.28 0.22 0.14 0.17 0.23 0.33 0.45 0.55 0.77 0.93 0.84 0.78 1.11 1.82
1.64 1.50 1.19 1.00 0.80 0.67 0.83 1.43 1.75 1.61 1.40 1.64 1.93 1.91 1.56 1.38 1.34 1.28 1.23 1.12 0.95 0.90 0.99 0.78 0.54 0.39 0.30 0.25 0.30 0.39 0.38 0.26 0.19 0.26 0.23 0.31 0.42 0.46 0.66 0.98 0.93 0.75 0.83
0.79 0.83 0.83 0.82 0.84 0.61 0.53 0.72 1.17 1.69 1.56 1.37 1.56 1.86 1.61 1.39 1.21 1.16 1.09 0.90 0.77 0.75 0.86 0.89 0.69 0.51 0.44 0.37 0.40 0.51 0.50 0.26 0.16 0.24 0.19 0.19 0.29 0.40 0.49 0.63 1.04 1.17 0.89
0.36 0.43 0.63 0.78 0.99 0.93 0.95 0.92 0.97 1.06 1.46 1.43 1.32 1.32 1.50 1.44 1.07 0.92 0.90 0.94 0.99 0.92 0.74 0.76 0.71 0.62 0.50 0.47 0.73 0.61 0.43 0.35 0.31 0.30 0.38 0.45 0.55 0.68 0.82 0.78 0.82 1.03 1.27
0.66 0.52 0.48 0.45 0.79 1.15 0.84 0.77 0.72 1.01 1.20 1.40 1.41 1.43 1.20 1.48 1.45 1.24 1.11 0.91 0.92 1.03 1.07 0.93 0.87 0.81 0.77 0.80 0.88 0.81 0.82 0.71 0.79 0.90 0.78 0.69 0.73 0.78 0.93 1.35 1.36 1.38 1.25
1.02 0.79 0.85 0.68 0.62 0.87 1.28 0.93 0.79 0.61 0.82 1.03 1.09 1.08 1.48 1.70 1.24 1.26 1.36 1.39 1.33 1.21 1.10 1.09 0.98 0.88 0.72 0.70 0.76 0.90 0.93 1.05 1.14 0.90 0.94 1.00 0.83 0.79 0.83 0.88 1.40 1.47 1.46
1.26 1.24 1.00 0.98 0.91 0.87 1.41 0.98 1.07 0.96 0.85 0.71 0.85 0.96 0.90 1.58 1.91 1.33 1.46 1.55 1.71 1.90 1.63 1.41 1.24 1.29 1.34 1.38 1.40 1.35 1.25 1.20 1.11 0.98 1.17 1.27 1.10 1.10 1.09 1.27 1.45 1.08 1.25
1.63 1.52 1.21 1.00 0.77 0.81 1.03 1.30 1.43 1.08 0.99 0.80 0.73 0.81 0.90 0.99 1.65 1.71 1.38 1.56 1.69 1.99 2.40 2.21 2.04 2.06 2.05 1.80 1.42 1.43 1.59 1.75 1.75 1.71 1.80 1.94 1.48 1.38 1.20 1.17 1.61 1.15 1.03
1.35 1.45 1.29 0.95 0.85 0.87 1.30 1.24 1.25 0.92 1.11 1.07 0.95 1.03 1.02 0.86 1.47 1.71 1.35 1.50 1.60 1.87 2.46 2.37 2.19 2.24 2.22 2.29 1.86 1.65 1.96 2.26 2.65 2.42 2.26 2.25 2.06 1.88 1.80 1.64 1.55 1.47 1.19
1.39 1.22 1.20 1.18 1.38 1.09 1.48 1.36 1.34 0.94 0.87 1.02 1.01 1.15 1.77 1.29 1.35 1.14 1.00 1.01 1.47 1.89 1.78 1.97 1.99 2.06 2.15 2.45 2.68 2.17 2.14 2.54 2.77 2.70 2.25 2.29 2.17 2.21 2.43 1.84 1.39 1.27 1.17

GFSMA_prec_precacc_159.txt.gz
Total_Precipitation_Accumulation
0.62 0.69 0.49 0.48 0.66 0.72 0.90 0.96 0.84 0.83 0.96 0.85 0.82 0.85 0.69 0.48 0.61 0.65 0.63 0.79 1.09 1.34 1.04 1.34 1.16 1.38 1.43 1.31 1.21 1.14 1.14 1.15 0.88 0.71 0.49 0.45 0.51 0.53 0.44 0.19 0.23 0.16 0.18
0.48 0.41 0.38 0.41 0.38 0.53 0.96 1.03 1.00 1.08 1.11 1.12 1.23 1.17 1.17 1.13 1.01 1.03 0.89 0.78 0.88 1.28 1.76 1.36 1.72 1.29 1.41 1.47 1.70 1.42 1.20 1.18 1.05 0.93 0.64 0.49 0.60 0.68 0.60 0.55 0.29 0.19 0.20
0.51 0.37 0.31 0.30 0.35 0.49 0.91 1.00 1.34 1.57 1.40 1.13 1.17 1.21 1.17 1.20 1.43 1.66 1.63 1.60 1.92 1.96 2.75 2.36 2.36 1.65 1.87 1.81 1.78 2.00 1.91 1.97 1.48 1.10 0.74 0.57 0.52 0.61 0.66 0.51 0.47 0.27 0.15
0.79 0.86 0.66 0.50 0.43 0.80 1.05 0.85 0.89 1.38 1.27 0.97 0.89 1.22 1.39 1.60 1.66 1.94 2.10 1.61 1.44 1.27 1.69 2.63 2.78 3.22 2.74 2.75 2.57 2.30 2.50 2.34 1.86 1.32 0.87 0.57 0.49 0.64 0.68 0.64 0.58 0.59 0.37
0.81 0.80 0.84 0.90 0.98 1.21 1.22 1.18 1.13 1.07 1.09 0.83 0.75 1.01 1.32 1.71 1.95 1.99 1.80 1.46 1.27 1.42 1.35 1.63 1.71 2.13 2.58 2.61 3.14 3.04 2.50 2.38 1.84 1.16 0.89 0.61 0.45 0.66 0.61 0.58 0.55 0.54 0.56
1.12 0.59 0.50 0.59 0.99 1.21 1.42 1.63 1.55 1.26 1.29 1.20 1.22 1.17 1.12 1.29 1.47 1.68 1.49 1.66 1.63 1.93 1.92 2.35 2.41 2.35 2.17 2.14 2.11 1.99 1.54 1.06 0.91 1.04 1.05 0.81 0.61 0.76 0.65 0.57 0.56 0.54 0.59
1.89 1.04 0.56 0.32 0.43 0.50 0.61 1.05 1.50 1.44 1.51 1.84 2.51 2.43 1.86 1.70 2.06 2.41 2.97 2.95 3.36 3.33 3.32 2.77 1.83 1.41 1.09 1.28 1.48 1.59 1.25 0.92 0.67 0.63 0.77 0.81 0.79 0.68 0.65 0.60 0.53 0.54 0.57
1.21 1.45 0.85 0.61 0.43 0.52 0.58 0.72 1.10 1.21 1.24 1.37 1.64 1.67 1.71 1.35 1.06 0.86 0.88 0.90 0.81 0.84 0.78 1.29 1.18 0.52 0.35 0.36 0.57 0.80 0.84 0.94 0.75 0.65 0.75 0.70 0.68 0.74 0.66 0.60 0.66 0.64 0.70
0.98 1.17 1.05 0.91 0.85 1.18 1.22 1.24 1.46 1.49 1.31 1.29 1.19 1.41 1.18 1.00 0.92 0.95 0.92 0.73 0.71 0.62 0.44 0.63 1.17 0.80 0.51 0.33 0.39 0.50 0.55 0.68 0.86 0.78 0.69 0.69 0.61 0.60 0.62 0.56 0.61 0.78 0.77
1.21 1.50 1.15 1.08 0.87 0.81 0.97 0.99 1.12 1.31 1.48 1.53 1.55 1.66 1.35 1.15 0.95 0.82 0.80 0.84 0.60 0.42 0.32 0.28 0.54 0.92 0.72 0.52 0.37 0.35 0.45 0.57 0.71 1.04 0.83 0.60 0.63 0.57 0.58 0.55 0.49 0.48 0.64
0.60 1.16 1.33 1.29 1.07 0.91 0.80 0.83 0.71 0.69 0.60 0.78 0.55 0.47 0.59 0.51 0.51 0.61 0.53 0.40 0.39 0.23 0.15 0.16 0.21 0.45 0.72 0.79 0.50 0.38 0.27 0.34 0.67 0.76 1.06 0.80 0.65 0.59 0.55 0.51 0.55 0.48 0.46
0.86 1.03 1.31 1.12 1.20 1.15 1.11 1.31 1.38 1.06 0.78 0.65 0.71 0.44 0.41 0.40 0.31 0.39 0.40 0.34 0.38 0.30 0.27 0.23 0.18 0.18 0.32 0.65 0.80 0.61 0.54 0.37 0.45 0.72 0.75 1.04 0.81 0.67 0.71 0.64 0.58 0.69 0.78
0.83 1.01 1.26 1.22 1.12 1.23 1.14 1.16 1.39 1.61 1.57 1.08 0.93 0.81 0.65 0.48 0.44 0.50 0.65 0.55 0.45 0.32 0.33 0.28 0.20 0.19 0.23 0.36 0.52 0.71 0.72 0.49 0.44 0.55 0.72 0.72 0.94 0.98 0.82 0.85 0.95 0.84 0.82
0.46 0.88 1.36 1.51 1.27 1.28 1.36 1.38 1.48 1.49 1.80 1.86 1.23 0.96 0.73 0.61 0.64 0.61 0.68 0.86 0.73 0.48 0.28 0.18 0.13 0.21 0.27 0.33 0.52 0.69 0.76 0.71 0.55 0.73 0.80 0.88 0.90 1.05 1.18 0.93 0.76 0.81 0.91
0.39 0.47 0.59 1.00 1.16 1.28 1.54 1.76 1.59 1.37 1.39 1.53 1.29 0.99 0.83 0.59 0.67 0.67 0.61 0.65 0.73 0.64 0.36 0.22 0.19 0.16 0.18 0.21 0.20 0.28 0.57 0.80 0.95 0.77 0.71 0.92 0.85 0.97 1.10 1.25 1.02 0.69 0.65
0.74 0.80 0.72 0.95 1.23 1.53 1.57 1.59 1.35 1.20 1.28 1.36 1.58 1.50 1.09 0.70 0.67 0.79 0.78 0.79 0.83 0.82 0.67 0.38 0.24 0.15 0.19 0.23 0.24 0.23 0.21 0.32 0.32 0.50 0.58 0.61 0.79 0.85 0.89 0.97 1.41 1.66 1.20
1.06 1.02 1.03 1.03 0.84 0.98 1.32 1.61 1.66 1.58 1.67 1.71 1.77 1.55 1.18 1.08 1.11 1.09 1.13 1.12 1.02 1.03 0.89 0.57 0.33 0.26 0.26 0.28 0.26 0.28 0.23 0.14 0.17 0.25 0.36 0.47 0.56 0.79 0.96 0.89 0.83 1.16 1.89
1.64 1.50 1.19 1.00 0.80 0.67 0.83 1.43 1.75 1.61 1.40 1.64 1.93 1.91 1.56 1.38 1.34 1.28 1.23 1.12 0.95 0.90 0.99 0.78 0.54 0.39 0.30 0.25 0.30 0.39 0.38 0.26 0.19 0.27 0.27 0.35 0.43 0.46 0.67 0.99 0.94 0.77 0.86
0.79 0.83 0.83 0.82 0.84 0.61 0.53 0.72 1.17 1.69 1.56 1.37 1.56 1.86 1.61 1.39 1.21 1.16 1.09 0.90 0.77 0.75 0.86 0.89 0.69 0.51 0.44 0.37 0.40 0.51 0.50 0.26 0.16 0.24 0.20 0.26 0.32 0.41 0.49 0.64 1.04 1.18 0.89
0.36 0.43 0.63 0.78 0.99 0.93 0.95 0.92 0.98 1.07 1.46 1.43 1.32 1.32 1.50 1.44 1.07 0.92 0.90 0.94 0.99 0.92 0.74 0.76 0.71 0.62 0.50 0.47 0.73 0.61 0.43 0.35 0.32 0.31 0.38 0.48 0.66 0.71 0.83 0.79 0.83 1.03 1.27
0.66 0.53 0.48 0.46 0.81 1.17 0.87 0.78 0.74 1.02 1.20 1.40 1.41 1.43 1.20 1.48 1.45 1.24 1.11 0.91 0.92 1.03 1.07 0.93 0.87 0.81 0.77 0.80 0.88 0.81 0.82 0.71 0.79 0.91 0.78 0.70 0.80 0.81 0.93 1.36 1.37 1.38 1.26
1.03 0.80 0.88 0.71 0.65 0.94 1.34 0.95 0.80 0.62 0.82 1.03 1.09 1.08 1.48 1.70 1.24 1.26 1.36 1.39 1.33 1.21 1.10 1.09 0.98 0.88 0.72 0.70 0.76 0.90 0.93 1.05 1.14 0.91 0.94 1.00 0.84 0.82 0.84 0.88 1.41 1.47 1.47
1.34 1.34 1.09 1.06 1.01 0.99 1.46 0.99 1.08 0.97 0.86 0.72 0.85 0.96 0.90 1.58 1.91 1.33 1.46 1.55 1.71 1.90 1.63 1.41 1.24 1.29 1.34 1.38 1.40 1.35 1.25 1.20 1.11 0.98 1.17 1.28 1.10 1.11 1.10 1.27 1.45 1.08 1.25
1.83 1.72 1.35 1.15 0.90 0.87 1.05 1.31 1.43 1.09 0.99 0.80 0.73 0.81 0.90 0.99 1.65 1.71 1.38 1.56 1.69 1.99 2.40 2.21 2.04 2.06 2.05 1.80 1.42 1.43 1.59 1.75 1.75 1.71 1.80 1.94 1.48 1.38 1.21 1.18 1.61 1.15 1.03
1.71 1.74 1.48 1.13 0.94 0.90 1.30 1.24 1.25 0.92 1.11 1.07 0.95 1.03 1.02 0.86 1.47 1.71 1.35 1.50 1.60 1.87 2.46 2.37 2.19 2.24 2.22 2.29 1.86 1.65 1.96 2.26 2.65 2.42 2.26 2.26 2.06 1.88 1.81 1.64 1.55 1.47 1.19
1.71 1.41 1.40 1.32 1.42 1.10 1.48 1.36 1.34 0.94 0.87 1.02 1.01 1.15 1.77 1.29 1.35 1.14 1.00 1.01 1.47 1.89 1.78 1.97 1.99 2.06 2.15 2.45 2.68 2.17 2.14 2.54 2.77 2.70 2.25 2.30 2.17 2.21 2.43 1.85 1.39 1.27 1.17

GFSMA_prec_precacc_162.txt.gz
Total_Precipitation_Accumulation
0.62 0.69 0.49 0.48 0.66 0.72 0.90 0.96 0.84 0.83 0.97 0.85 0.82 0.86 0.70 0.48 0.61 0.65 0.63 0.79 1.09 1.34 1.05 1.34 1.17 1.38 1.44 1.31 1.21 1.15 1.15 1.17 0.91 0.76 0.55 0.49 0.56 0.60 0.50 0.24 0.26 0.18 0.19
0.48 0.41 0.38 0.41 0.38 0.53 0.96 1.03 1.00 1.08 1.11 1.12 1.23 1.17 1.17 1.13 1.01 1.03 0.89 0.78 0.88 1.28 1.76 1.36 1.73 1.30 1.41 1.48 1.70 1.43 1.21 1.19 1.07 0.95 0.66 0.52 0.66 0.77 0.75 0.73 0.45 0.30 0.24
0.51 0.37 0.31 0.30 0.35 0.49 0.91 1.00 1.34 1.57 1.40 1.13 1.17 1.21 1.17 1.20 1.43 1.66 1.63 1.60 1.92 1.96 2.75 2.36 2.36 1.65 1.88 1.83 1.78 2.01 1.91 1.98 1.49 1.11 0.76 0.59 0.54 0.64 0.70 0.62 0.65 0.47 0.30
0.79 0.86 0.66 0.50 0.43 0.80 1.05 0.85 0.89 1.38 1.27 0.97 0.89 1.22 1.39 1.60 1.66 1.94 2.10 1.61 1.44 1.27 1.69 2.63 2.78 3.22 2.74 2.75 2.58 2.31 2.50 2.34 1.87 1.32 0.88 0.58 0.51 0.66 0.70 0.66 0.61 0.65 0.53
0.81 0.80 0.84 0.90 0.98 1.21 1.22 1.18 1.13 1.07 1.09 0.83 0.75 1.01 1.32 1.71 1.95 1.99 1.80 1.46 1.27 1.42 1.35 1.63 1.71 2.13 2.58 2.61 3.14 3.05 2.50 2.38 1.85 1.16 0.89 0.61 0.45 0.67 0.63 0.60 0.58 0.57 0.60
1.12 0.59 0.50 0.59 0.99 1.21 1.42 1.63 1.55 1.26 1.29 1.20 1.22 1.17 1.12 1.29 1.47 1.68 1.49 1.66 1.63 1.93 1.92 2.35 2.41 2.35 2.17 2.14 2.11 1.99 1.54 1.06 0.91 1.04 1.05 0.81 0.61 0.76 0.65 0.58 0.58 0.57 0.62
1.89 1.04 0.56 0.32 0.43 0.50 0.61 1.05 1.50 1.44 1.51 1.84 2.51 2.43 1.86 1.70 2.06 2.41 2.97 2.95 3.36 3.33 3.32 2.77 1.83 1.41 1.09 1.28 1.48 1.59 1.25 0.92 0.67 0.63 0.77 0.81 0.79 0.68 0.65 0.60 0.53 0.55 0.59
1.21 1.45 0.85 0.61 0.43 0.52 0.58 0.72 1.10 1.21 1.24 1.37 1.64 1.67 1.71 1.35 1.06 0.86 0.88 0.90 0.81 0.84 0.78 1.29 1.18 0.52 0.35 0.36 0.57 0.80 0.84 0.94 0.75 0.65 0.75 0.70 0.68 0.74 0.66 0.60 0.66 0.64 0.70
0.98 1.17 1.05 0.91 0.85 1.18 1.22 1.24 1.46 1.49 1.31 1.29 1.19 1.41 1.18 1.00 0.92 0.95 0.92 0.73 0.71 0.62 0.44 0.63 1.17 0.80 0.51 0.33 0.39 0.50 0.55 0.68 0.86 0.78 0.69 0.69 0.62 0.60 0.62 0.56 0.61 0.79 0.78
1.21 1.50 1.15 1.08 0.87 0.81 0.97 0.99 1.12 1.31 1.48 1.53 1.55 1.66 1.35 1.15 0.95 0.82 0.80 0.84 0.60 0.42 0.32 0.28 0.54 0.92 0.72 0.52 0.37 0.35 0.45 0.57 0.71 1.04 0.83 0.61 0.63 0.58 0.59 0.56 0.51 0.50 0.66
0.60 1.16 1.33 1.29 1.07 0.91 0.80 0.83 0.71 0.69 0.60 0.78 0.55 0.47 0.59 0.51 0.51 0.61 0.53 0.40 0.39 0.23 0.15 0.16 0.21 0.45 0.72 0.79 0.50 0.38 0.28 0.35 0.67 0.76 1.06 0.80 0.66 0.60 0.57 0.54 0.58 0.51 0.48
0.86 1.03 1.31 1.12 1.20 1.15 1.11 1.31 1.38 1.06 0.78 0.65 0.71 0.44 0.41 0.40 0.31 0.39 0.40 0.34 0.38 0.30 0.27 0.23 0.18 0.18 0.32 0.65 0.80 0.61 0.55 0.37 0.46 0.72 0.75 1.05 0.83 0.68 0.73 0.66 0.60 0.71 0.81
0.83 1.01 1.26 1.22 1.12 1.23 1.14 1.16 1.39 1.61 1.57 1.08 0.93 0.81 0.65 0.48 0.44 0.50 0.65 0.55 0.45 0.32 0.33 0.28 0.20 0.19 0.23 0.36 0.52 0.71 0.73 0.49 0.45 0.55 0.72 0.73 0.95 0.99 0.83 0.86 0.97 0.86 0.84
0.46 0.88 1.36 1.51 1.27 1.28 1.36 1.38 1.48 1.49 1.80 1.86 1.23 0.96 0.73 0.61 0.64 0.61 0.68 0.86 0.73 0.48 0.28 0.18 0.13 0.21 0.27 0.33 0.52 0.70 0.76 0.72 0.56 0.73 0.80 0.88 0.91 1.06 1.19 0.94 0.77 0.83 0.93
0.39 0.47 0.59 1.00 1.16 1.28 1.54 1.76 1.59 1.37 1.39 1.53 1.29 0.99 0.83 0.59 0.67 0.67 0.61 0.65 0.73 0.64 0.36 0.22 0.19 0.16 0.18 0.21 0.20 0.29 0.57 0.80 0.95 0.77 0.71 0.92 0.86 0.98 1.10 1.25 1.02 0.70 0.66
0.74 0.80 0.72 0.95 1.23 1.53 1.57 1.59 1.35 1.20 1.28 1.36 1.58 1.50 1.09 0.70 0.67 0.79 0.78 0.79 0.83 0.82 0.67 0.38 0.24 0.15 0.19 0.23 0.24 0.23 0.21 0.32 0.32 0.50 0.58 0.61 0.79 0.85 0.89 0.97 1.42 1.66 1.21
1.06 1.02 1.03 1.03 0.84 0.98 1.32 1.61 1.66 1.58 1.67 1.71 1.77 1.55 1.18 1.08 1.11 1.09 1.13 1.12 1.02 1.03 0.89 0.57 0.33 0.26 0.26 0.28 0.26 0.28 0.23 0.14 0.17 0.26 0.37 0.47 0.56 0.79 0.97 0.89 0.83 1.16 1.89
1.64 1.50 1.19 1.00 0.80 0.67 0.83 1.43 1.75 1.61 1.40 1.64 1.93 1.91 1.56 1.38 1.34 1.28 1.23 1.12 0.95 0.90 0.99 0.78 0.54 0.39 0.30 0.25 0.30 0.39 0.38 0.26 0.19 0.27 0.28 0.36 0.44 0.46 0.67 0.99 0.94 0.77 0.86
0.79 0.83 0.83 0.82 0.84 0.61 0.53 0.72 1.18 1.69 1.56 1.37 1.57 1.86 1.61 1.39 1.22 1.17 1.09 0.90 0.77 0.75 0.86 0.89 0.69 0.51 0.44 0.37 0.40 0.51 0.50 0.26 0.16 0.24 0.21 0.28 0.33 0.41 0.49 0.64 1.05 1.18 0.89
0.36 0.43 0.63 0.78 1.00 0.93 0.95 0.92 0.98 1.07 1.47 1.45 1.35 1.33 1.51 1.45 1.08 0.92 0.90 0.94 0.99 0.92 0.74 0.76 0.71 0.62 0.50 0.47 0.73 0.61 0.43 0.35 0.32 0.31 0.39 0.49 0.66 0.71 0.83 0.79 0.83 1.04 1.28
0.66 0.53 0.49 0.47 0.81 1.17 0.87 0.79 0.76 1.03 1.23 1.44 1.43 1.43 1.20 1.48 1.45 1.24 1.11 0.91 0.92 1.03 1.07 0.93 0.87 0.81 0.77 0.80 0.88 0.81 0.82 0.71 0.79 0.91 0.78 0.70 0.81 0.81 0.93 1.36 1.37 1.39 1.27
1.07 0.85 0.92 0.73 0.65 0.95 1.35 0.98 0.83 0.64 0.85 1.05 1.09 1.08 1.48 1.70 1.24 1.26 1.36 1.39 1.33 1.21 1.10 1.09 0.98 0.88 0.72 0.70 0.76 0.90 0.93 1.05 1.14 0.91 0.94 1.00 0.84 0.83 0.84 0.88 1.41 1.48 1.48
1.42 1.41 1.17 1.14 1.09 1.06 1.52 1.04 1.11 1.00 0.89 0.74 0.85 0.96 0.90 1.58 1.91 1.33 1.46 1.55 1.71 1.90 1.63 1.41 1.24 1.29 1.34 1.38 1.40 1.35 1.25 1.20 1.11 0.98 1.17 1.28 1.11 1.11 1.10 1.27 1.46 1.08 1.25
1.92 1.82 1.46 1.27 1.03 0.99 1.14 1.37 1.49 1.12 1.01 0.82 0.73 0.81 0.90 0.99 1.65 1.71 1.38 1.56 1.69 1.99 2.40 2.21 2.04 2.06 2.05 1.80 1.42 1.43 1.59 1.75 1.75 1.71 1.80 1.94 1.48 1.38 1.22 1.18 1.61 1.15 1.03
1.84 1.82 1.60 1.30 1.10 0.99 1.36 1.27 1.28 0.93 1.13 1.08 0.95 1.03 1.02 0.86 1.47 1.71 1.35 1.50 1.60 1.87 2.46 2.37 2.19 2.24 2.22 2.29 1.86 1.65 1.96 2.26 2.65 2.42 2.26 2.26 2.06 1.88 1.81 1.64 1.55 1.47 1.19
1.78 1.50 1.52 1.47 1.53 1.17 1.54 1.40 1.36 0.95 0.88 1.02 1.01 1.15 1.77 1.29 1.35 1.14 1.00 1.01 1.47 1.89 1.78 1.97 1.99 2.06 2.15 2.45 2.68 2.17 2.14 2.54 2.77 2.70 2.25 2.30 2.17 2.21 2.43 1.85 1.39 1.27 1.17

GFSMA_prec_precacc_165.txt.gz
Total_Precipitation_Accumulation
0.62 0.69 0.49 0.48 0.66 0.72 0.90 0.96 0.84 0.83 0.97 0.86 0.83 0.89 0.71 0.50 0.61 0.65 0.63 0.79 1.09 1.35 1.05 1.34 1.17 1.39 1.45 1.32 1.21 1.15 1.16 1.17 0.92 0.77 0.56 0.50 0.58 0.63 0.58 0.35 0.38 0.31 0.30
0.48 0.41 0.38 0.41 0.38 0.53 0.96 1.03 1.00 1.08 1.11 1.12 1.24 1.19 1.22 1.17 1.02 1.03 0.89 0.78 0.88 1.28 1.76 1.37 1.73 1.31 1.42 1.49 1.71 1.44 1.21 1.19 1.07 0.95 0.67 0.54 0.67 0.78 0.76 0.76 0.54 0.44 0.38
0.51 0.37 0.31 0.30 0.35 0.49 0.91 1.00 1.34 1.57 1.40 1.13 1.17 1.21 1.17 1.21 1.43 1.66 1.63 1.60 1.92 1.97 2.75 2.36 2.36 1.65 1.88 1.83 1.79 2.01 1.91 1.98 1.49 1.11 0.76 0.59 0.55 0.64 0.71 0.64 0.67 0.51 0.38
0.79 0.86 0.66 0.50 0.43 0.80 1.05 0.85 0.89 1.38 1.27 0.97 0.89 1.22 1.39 1.60 1.66 1.94 2.10 1.61 1.44 1.27 1.69 2.63 2.78 3.22 2.74 2.76 2.58 2.31 2.51 2.34 1.87 1.32 0.88 0.58 0.51 0.67 0.70 0.66 0.61 0.66 0.54
0.81 0.80 0.84 0.90 0.98 1.21 1.22 1.18 1.13 1.07 1.09 0.83 0.75 1.01 1.32 1.71 1.95 1.99 1.80 1.46 1.27 1.42 1.35 1.63 1.71 2.13 2.58 2.61 3.14 3.05 2.50 2.38 1.85 1.16 0.89 0.61 0.45 0.67 0.63 0.60 0.58 0.57 0.61
1.12 0.59 0.50 0.59 0.99 1.21 1.42 1.63 1.55 1.26 1.29 1.20 1.22 1.17 1.12 1.29 1.47 1.68 1.49 1.66 1.63 1.93 1.92 2.35 2.41 2.35 2.17 2.14 2.11 1.99 1.54 1.06 0.91 1.04 1.05 0.81 0.61 0.76 0.65 0.58 0.58 0.57 0.62
1.89 1.04 0.56 0.32 0.43 0.50 0.61 1.05 1.50 1.44 1.51 1.84 2.51 2.43 1.86 1.70 2.06 2.41 2.97 2.95 3.36 3.33 3.32 2.77 1.83 1.41 1.09 1.28 1.48 1.59 1.25 0.92 0.67 0.63 0.78 0.81 0.79 0.68 0.65 0.60 0.53 0.55 0.59
1.21 1.45 0.85 0.61 0.43 0.52 0.58 0.72 1.10 1.21 1.24 1.37 1.64 1.67 1.71 1.35 1.06 0.86 0.88 0.90 0.81 0.84 0.78 1.29 1.18 0.52 0.35 0.36 0.57 0.80 0.84 0.94 0.75 0.65 0.75 0.70 0.68 0.74 0.66 0.61 0.67 0.64 0.71
0.98 1.17 1.05 0.91 0.85 1.18 1.22 1.24 1.46 1.49 1.31 1.29 1.19 1.41 1.18 1.00 0.92 0.95 0.92 0.73 0.71 0.62 0.44 0.63 1.17 0.80 0.51 0.33 0.39 0.50 0.55 0.68 0.86 0.78 0.69 0.69 0.62 0.60 0.62 0.57 0.62 0.80 0.79
1.21 1.50 1.15 1.08 0.87 0.81 0.97 0.99 1.12 1.31 1.48 1.53 1.55 1.66 1.35 1.15 0.95 0.82 0.80 0.84 0.60 0.42 0.32 0.28 0.54 0.92 0.72 0.52 0.37 0.35 0.45 0.57 0.71 1.04 0.83 0.61 0.64 0.58 0.59 0.57 0.51 0.51 0.67
0.60 1.16 1.33 1.29 1.07 0.91 0.80 0.83 0.71 0.69 0.60 0.78 0.55 0.47 0.59 0.51 0.51 0.61 0.53 0.40 0.39 0.23 0.15 0.16 0.21 0.45 0.72 0.79 0.50 0.38 0.28 0.35 0.67 0.77 1.07 0.82 0.67 0.61 0.58 0.55 0.59 0.52 0.49
0.86 1.03 1.31 1.12 1.20 1.15 1.11 1.31 1.38 1.06 0.78 0.65 0.71 0.44 0.41 0.40 0.31 0.39 0.40 0.34 0.38 0.30 0.27 0.23 0.18 0.18 0.32 0.65 0.80 0.61 0.55 0.37 0.46 0.72 0.76 1.06 0.83 0.69 0.74 0.67 0.62 0.72 0.82
0.83 1.01 1.26 1.22 1.12 1.23 1.14 1.16 1.39 1.61 1.57 1.08 0.93 0.81 0.65 0.48 0.44 0.50 0.65 0.55 0.45 0.32 0.33 0.28 0.20 0.19 0.23 0.36 0.52 0.71 0.73 0.50 0.45 0.56 0.72 0.74 0.95 0.99 0.84 0.87 0.98 0.87 0.85
0.46 0.88 1.36 1.51 1.27 1.28 1.36 1.38 1.48 1.49 1.80 1.86 1.23 0.96 0.73 0.61 0.64 0.61 0.68 0.86 0.73 0.48 0.28 0.18 0.13 0.21 0.27 0.33 0.52 0.70 0.76 0.72 0.56 0.73 0.80 0.88 0.92 1.06 1.20 0.95 0.78 0.84 0.94
0.39 0.47 0.59 1.00 1.16 1.28 1.54 1.76 1.59 1.37 1.39 1.53 1.29 0.99 0.83 0.59 0.67 0.67 0.61 0.65 0.73 0.64 0.36 0.22 0.19 0.16 0.18 0.21 0.20 0.29 0.57 0.80 0.95 0.78 0.71 0.92 0.86 0.98 1.11 1.25 1.03 0.71 0.67
0.74 0.80 0.72 0.95 1.23 1.53 1.57 1.59 1.35 1.20 1.28 1.36 1.58 1.50 1.09 0.70 0.67 0.79 0.78 0.79 0.83 0.82 0.67 0.38 0.24 0.15 0.19 0.23 0.24 0.23 0.21 0.32 0.33 0.50 0.59 0.61 0.79 0.85 0.89 0.98 1.42 1.67 1.22
1.06 1.02 1.03 1.03 0.84 0.98 1.32 1.61 1.66 1.58 1.67 1.71 1.77 1.55 1.18 1.08 1.11 1.09 1.13 1.12 1.02 1.03 0.89 0.57 0.33 0.26 0.26 0.28 0.26 0.28 0.23 0.14 0.18 0.26 0.37 0.47 0.56 0.79 0.97 0.89 0.83 1.17 1.90
1.64 1.50 1.19 1.00 0.80 0.67 0.83 1.43 1.75 1.61 1.40 1.64 1.93 1.91 1.56 1.38 1.35 1.29 1.24 1.12 0.95 0.90 0.99 0.78 0.54 0.39 0.30 0.25 0.30 0.39 0.38 0.26 0.19 0.28 0.28 0.36 0.44 0.46 0.67 1.00 0.95 0.78 0.87
0.79 0.83 0.83 0.82 0.84 0.61 0.53 0.72 1.18 1.69 1.56 1.37 1.57 1.86 1.62 1.41 1.25 1.19 1.11 0.91 0.78 0.75 0.86 0.89 0.69 0.51 0.44 0.37 0.40 0.51 0.50 0.26 0.16 0.25 0.22 0.29 0.33 0.41 0.49 0.64 1.05 1.19 0.90
0.36 0.43 0.63 0.78 1.00 0.93 0.95 0.92 0.98 1.07 1.47 1.45 1.35 1.34 1.51 1.45 1.09 0.94 0.92 0.96 1.00 0.92 0.74 0.76 0.71 0.62 0.50 0.47 0.73 0.61 0.43 0.35 0.32 0.31 0.39 0.49 0.66 0.71 0.83 0.79 0.83 1.04 1.28
0.66 0.53 0.49 0.48 0.83 1.18 0.87 0.79 0.76 1.03 1.23 1.46 1.46 1.45 1.21 1.48 1.45 1.24 1.12 0.92 0.92 1.03 1.07 0.93 0.87 0.81 0.77 0.80 0.88 0.81 0.82 0.71 0.79 0.91 0.78 0.70 0.81 0.81 0.93 1.36 1.37 1.39 1.27
1.07 0.86 0.94 0.77 0.71 0.97 1.36 0.98 0.84 0.66 0.88 1.10 1.13 1.09 1.48 1.70 1.24 1.26 1.36 1.39 1.33 1.21 1.10 1.09 0.98 0.88 0.72 0.70 0.76 0.90 0.93 1.05 1.14 0.91 0.94 1.01 0.84 0.83 0.84 0.88 1.41 1.48 1.48
1.43 1.48 1.28 1.25 1.16 1.09 1.54 1.06 1.13 1.03 0.93 0.78 0.87 0.96 0.90 1.58 1.91 1.33 1.46 1.55 1.71 1.90 1.63 1.41 1.24 1.29 1.34 1.38 1.40 1.35 1.25 1.20 1.11 0.98 1.17 1.29 1.11 1.11 1.10 1.28 1.46 1.08 1.26
2.00 1.92 1.58 1.38 1.11 1.04 1.19 1.44 1.57 1.23 1.10 0.88 0.76 0.82 0.91 0.99 1.65 1.71 1.38 1.56 1.69 1.99 2.40 2.21 2.04 2.06 2.05 1.80 1.42 1.43 1.59 1.75 1.75 1.71 1.80 1.94 1.49 1.38 1.22 1.18 1.61 1.15 1.03
1.92 1.92 1.70 1.38 1.16 1.06 1.44 1.34 1.38 1.05 1.21 1.12 0.97 1.04 1.02 0.86 1.47 1.71 1.35 1.50 1.60 1.87 2.46 2.37 2.19 2.24 2.22 2.29 1.86 1.65 1.96 2.26 2.65 2.42 2.26 2.26 2.06 1.88 1.81 1.64 1.55 1.47 1.19
1.81 1.55 1.59 1.54 1.58 1.22 1.60 1.48 1.45 1.07 0.95 1.05 1.02 1.15 1.77 1.29 1.35 1.14 1.00 1.01 1.47 1.89 1.78 1.97 1.99 2.06 2.15 2.45 2.68 2.17 2.14 2.54 2.77 2.70 2.25 2.30 2.17 2.21 2.43 1.85 1.39 1.27 1.17

GFSMA_prec_precacc_168.txt.gz
Total_Precipitation_Accumulation
0.62 0.69 0.49 0.48 0.66 0.72 0.90 0.96 0.84 0.83 0.97 0.86 0.85 0.90 0.72 0.50 0.62 0.65 0.63 0.80 1.11 1.36 1.08 1.36 1.18 1.40 1.45 1.33 1.22 1.15 1.16 1.18 0.93 0.77 0.57 0.52 0.62 0.66 0.60 0.36 0.40 0.35 0.32
0.48 0.41 0.38 0.41 0.38 0.53 0.96 1.03 1.00 1.08 1.11 1.12 1.25 1.20 1.23 1.17 1.03 1.05 0.90 0.79 0.89 1.29 1.77 1.38 1.74 1.32 1.42 1.50 1.71 1.44 1.22 1.20 1.07 0.95 0.67 0.54 0.67 0.78 0.77 0.77 0.54 0.45 0.40
0.51 0.37 0.31 0.30 0.35 0.49 0.91 1.00 1.34 1.57 1.40 1.13 1.18 1.23 1.19 1.21 1.43 1.66 1.63 1.60 1.92 1.97 2.75 2.37 2.36 1.66 1.88 1.84 1.79 2.01 1.92 1.98 1.49 1.11 0.76 0.59 0.55 0.65 0.71 0.64 0.67 0.52 0.39
0.79 0.86 0.66 0.50 0.43 0.80 1.05 0.85 0.89 1.38 1.27 0.97 0.89 1.22 1.39 1.60 1.66 1.94 2.10 1.61 1.44 1.27 1.70 2.64 2.78 3.22 2.75 2.76 2.58 2.31 2.51 2.34 1.87 1.32 0.88 0.58 0.51 0.67 0.70 0.66 0.61 0.66 0.54
0.81 0.80 0.84 0.90 0.98 1.21 1.22 1.18 1.13 1.07 1.09 0.83 0.75 1.01 1.32 1.71 1.95 1.99 1.80 1.46 1.27 1.42 1.35 1.63 1.71 2.13 2.58 2.61 3.14 3.05 2.50 2.38 1.85 1.16 0.89 0.61 0.45 0.67 0.63 0.60 0.58 0.57 0.61
1.12 0.59 0.50 0.59 0.99 1.21 1.42 1.63 1.55 1.26 1.29 1.20 1.22 1.17 1.12 1.29 1.47 1.68 1.49 1.66 1.63 1.93 1.92 2.35 2.41 2.35 2.17 2.14 2.11 1.99 1.54 1.06 0.91 1.04 1.05 0.81 0.61 0.76 0.65 0.58 0.58 0.57 0.62
1.89 1.04 0.56 0.32 0.43 0.50 0.61 1.05 1.50 1.44 1.51 1.84 2.51 2.43 1.86 1.70 2.06 2.41 2.97 2.95 3.36 3.33 3.32 2.77 1.83 1.41 1.09 1.28 1.48 1.59 1.25 0.92 0.67 0.63 0.78 0.81 0.79 0.68 0.65 0.60 0.53 0.55 0.59
1.21 1.45 0.85 0.61 0.43 0.52 0.58 0.72 1.10 1.21 1.24 1.37 1.64 1.67 1.71 1.35 1.06 0.86 0.89 0.91 0.81 0.84 0.78 1.29 1.18 0.52 0.35 0.36 0.57 0.80 0.84 0.94 0.75 0.66 0.75 0.70 0.68 0.74 0.66 0.61 0.67 0.64 0.71
0.98 1.17 1.05 0.91 0.85 1.18 1.22 1.24 1.46 1.49 1.31 1.29 1.19 1.41 1.18 1.00 0.92 0.95 0.92 0.73 0.71 0.62 0.44 0.63 1.17 0.80 0.51 0.33 0.39 0.50 0.55 0.68 0.86 0.78 0.69 0.69 0.62 0.60 0.62 0.57 0.62 0.80 0.79
1.21 1.50 1.15 1.08 0.87 0.81 0.97 0.99 1.12 1.31 1.48 1.53 1.55 1.66 1.35 1.15 0.95 0.82 0.80 0.84 0.60 0.42 0.32 0.28 0.54 0.92 0.72 0.52 0.37 0.35 0.45 0.57 0.71 1.04 0.83 0.61 0.64 0.58 0.59 0.57 0.52 0.51 0.68
0.60 1.16 1.33 1.29 1.07 0.91 0.80 0.83 0.71 0.69 0.60 0.78 0.55 0.47 0.59 0.51 0.51 0.61 0.53 0.40 0.39 0.23 0.15 0.16 0.21 0.45 0.72 0.79 0.50 0.38 0.28 0.35 0.68 0.77 1.07 0.82 0.67 0.62 0.59 0.55 0.60 0.53 0.49
0.86 1.03 1.31 1.12 1.20 1.15 1.11 1.31 1.38 1.06 0.78 0.65 0.71 0.44 0.41 0.40 0.31 0.39 0.40 0.34 0.38 0.30 0.27 0.23 0.18 0.18 0.32 0.65 0.80 0.61 0.55 0.37 0.46 0.72 0.76 1.06 0.84 0.70 0.75 0.68 0.62 0.73 0.82
0.83 1.01 1.26 1.22 1.12 1.23 1.14 1.16 1.39 1.61 1.57 1.08 0.93 0.81 0.65 0.48 0.44 0.50 0.65 0.55 0.45 0.32 0.33 0.28 0.20 0.19 0.23 0.36 0.52 0.71 0.73 0.50 0.45 0.56 0.72 0.74 0.95 1.00 0.84 0.87 0.98 0.87 0.86
0.46 0.88 1.36 1.51 1.27 1.28 1.36 1.38 1.48 1.49 1.80 1.86 1.23 0.96 0.73 0.61 0.64 0.61 0.68 0.86 0.73 0.48 0.28 0.18 0.13 0.21 0.27 0.33 0.52 0.70 0.76 0.72 0.56 0.73 0.80 0.88 0.92 1.06 1.20 0.95 0.78 0.84 0.95
0.39 0.47 0.59 1.00 1.16 1.28 1.54 1.76 1.59 1.37 1.39 1.53 1.29 0.99 0.83 0.59 0.67 0.67 0.61 0.65 0.73 0.64 0.36 0.22 0.19 0.16 0.18 0.21 0.20 0.29 0.57 0.80 0.95 0.78 0.71 0.92 0.86 0.98 1.11 1.26 1.03 0.71 0.68
0.74 0.80 0.72 0.95 1.23 1.53 1.57 1.59 1.35 1.20 1.28 1.36 1.58 1.50 1.09 0.70 0.67 0.79 0.78 0.79 0.83 0.82 0.67 0.38 0.24 0.15 0.19 0.23 0.24 0.23 0.21 0.32 0.33 0.50 0.59 0.62 0.79 0.85 0.89 0.98 1.42 1.67 1.22
1.06 1.02 1.03 1.03 0.84 0.98 1.32 1.61 1.66 1.58 1.67 1.71 1.77 1.55 1.18 1.08 1.11 1.09 1.13 1.12 1.02 1.03 0.89 0.57 0.34 0.27 0.26 0.28 0.26 0.28 0.23 0.14 0.18 0.27 0.37 0.47 0.56 0.79 0.97 0.89 0.83 1.17 1.90
1.64 1.50 1.19 1.00 0.80 0.67 0.83 1.43 1.75 1.61 1.40 1.64 1.93 1.91 1.56 1.38 1.35 1.29 1.24 1.13 0.95 0.91 0.99 0.78 0.54 0.40 0.30 0.25 0.30 0.39 0.38 0.26 0.19 0.29 0.29 0.36 0.44 0.47 0.67 1.00 0.95 0.78 0.87
0.79 0.83 0.83 0.82 0.84 0.61 0.53 0.72 1.18 1.69 1.56 1.37 1.57 1.86 1.62 1.41 1.25 1.20 1.11 0.91 0.78 0.75 0.87 0.90 0.69 0.51 0.44 0.37 0.40 0.51 0.50 0.26 0.16 0.26 0.22 0.29 0.33 0.41 0.49 0.64 1.06 1.19 0.90
0.36 0.43 0.63 0.78 1.00 0.93 0.95 0.92 0.98 1.07 1.47 1.45 1.35 1.34 1.51 1.45 1.09 0.94 0.92 0.96 1.00 0.93 0.75 0.77 0.71 0.62 0.50 0.47 0.73 0.61 0.43 0.35 0.32 0.31 0.39 0.49 0.66 0.71 0.83 0.79 0.84 1.05 1.29
0.66 0.53 0.49 0.48 0.83 1.20 0.89 0.80 0.76 1.03 1.23 1.46 1.46 1.45 1.21 1.49 1.49 1.26 1.12 0.92 0.92 1.03 1.07 0.93 0.87 0.81 0.77 0.80 0.88 0.81 0.82 0.71 0.79 0.91 0.78 0.70 0.81 0.81 0.93 1.36 1.37 1.40 1.28
1.07 0.86 0.94 0.78 0.73 1.02 1.43 1.03 0.86 0.67 0.88 1.10 1.14 1.11 1.51 1.74 1.27 1.27 1.36 1.40 1.34 1.21 1.10 1.09 0.98 0.88 0.72 0.70 0.76 0.90 0.93 1.05 1.14 0.91 0.94 1.01 0.84 0.83 0.85 0.88 1.41 1.48 1.49
1.43 1.48 1.28 1.26 1.21 1.17 1.63 1.09 1.14 1.04 0.94 0.78 0.90 1.00 0.93 1.62 1.93 1.35 1.46 1.55 1.71 1.90 1.63 1.41 1.24 1.29 1.34 1.38 1.40 1.35 1.25 1.20 1.11 0.98 1.17 1.29 1.11 1.11 1.10 1.28 1.46 1.08 1.26
2.00 1.92 1.59 1.41 1.18 1.13 1.25 1.46 1.58 1.25 1.13 0.94 0.84 0.89 0.95 1.03 1.67 1.72 1.38 1.56 1.69 1.99 2.40 2.21 2.04 2.06 2.05 1.80 1.42 1.43 1.59 1.75 1.75 1.71 1.80 1.94 1.49 1.38 1.22 1.18 1.61 1.15 1.04
1.92 1.92 1.72 1.41 1.21 1.10 1.46 1.35 1.41 1.09 1.27 1.19 1.03 1.09 1.05 0.88 1.48 1.71 1.35 1.50 1.60 1.87 2.46 2.37 2.19 2.24 2.22 2.29 1.86 1.65 1.96 2.26 2.65 2.42 2.26 2.26 2.07 1.89 1.81 1.64 1.55 1.47 1.19
1.82 1.56 1.62 1.56 1.60 1.25 1.63 1.52 1.51 1.13 1.02 1.11 1.06 1.17 1.78 1.30 1.35 1.14 1.00 1.01 1.47 1.90 1.78 1.97 1.99 2.06 2.15 2.45 2.68 2.17 2.14 2.54 2.77 2.70 2.25 2.30 2.18 2.22 2.43 1.85 1.39 1.27 1.17

GFSMA_prec_precacc_171.txt.gz
Total_Precipitation_Accumulation
0.62 0.69 0.49 0.48 0.66 0.72 0.90 0.96 0.84 0.83 0.97 0.86 0.85 0.91 0.73 0.55 0.69 0.71 0.70 0.91 1.16 1.39 1.10 1.37 1.19 1.41 1.46 1.33 1.22 1.16 1.16 1.18 0.93 0.78 0.57 0.52 0.63 0.67 0.60 0.36 0.41 0.36 0.35
0.48 0.41 0.38 0.41 0.38 0.53 0.96 1.03 1.00 1.08 1.11 1.12 1.25 1.20 1.23 1.18 1.04 1.08 0.93 0.82 0.92 1.30 1.78 1.39 1.75 1.33 1.43 1.50 1.72 1.44 1.22 1.20 1.07 0.96 0.67 0.54 0.67 0.78 0.77 0.77 0.54 0.45 0.40
0.51 0.37 0.31 0.30 0.35 0.49 0.91 1.00 1.34 1.57 1.40 1.13 1.18 1.24 1.22 1.24 1.46 1.70 1.68 1.63 1.95 1.99 2.76 2.38 2.37 1.66 1.88 1.84 1.79 2.01 1.92 1.98 1.49 1.11 0.76 0.59 0.55 0.65 0.71 0.64 0.67 0.52 0.39
0.79 0.86 0.66 0.50 0.43 0.80 1.05 0.85 0.89 1.38 1.27 0.97 0.89 1.22 1.40 1.61 1.66 1.95 2.10 1.61 1.44 1.27 1.70 2.64 2.79 3.22 2.75 2.76 2.58 2.31 2.51 2.34 1.87 1.32 0.88 0.58 0.51 0.67 0.70 0.66 0.61 0.66 0.54
0.81 0.80 0.84 0.90 0.98 1.21 1.22 1.18 1.13 1.07 1.09 0.83 0.75 1.01 1.32 1.72 1.95 1.99 1.80 1.46 1.27 1.42 1.35 1.63 1.72 2.13 2.58 2.61 3.14 3.05 2.50 2.38 1.85 1.16 0.89 0.61 0.45 0.67 0.63 0.60 0.58 0.57 0.61
1.12 0.59 0.50 0.59 0.99 1.21 1.42 1.63 1.55 1.26 1.29 1.20 1.22 1.17 1.12 1.29 1.47 1.68 1.49 1.66 1.63 1.93 1.92 2.35 2.41 2.35 2.17 2.14 2.11 1.99 1.54 1.06 0.91 1.04 1.05 0.81 0.61 0.76 0.65 0.58 0.58 0.57 0.62
1.89 1.04 0.56 0.32 0.43 0.50 0.61 1.05 1.50 1.44 1.51 1.84 2.51 2.43 1.86 1.70 2.06 2.41 2.97 2.95 3.36 3.33 3.32 2.77 1.83 1.41 1.09 1.28 1.48 1.59 1.25 0.92 0.67 0.63 0.78 0.81 0.79 0.68 0.65 0.60 0.53 0.55 0.59
1.21 1.45 0.85 0.61 0.43 0.52 0.58 0.72 1.10 1.21 1.24 1.37 1.64 1.67 1.71 1.36 1.06 0.86 0.89 0.91 0.81 0.84 0.78 1.29 1.18 0.52 0.35 0.36 0.57 0.80 0.84 0.94 0.75 0.66 0.75 0.70 0.68 0.74 0.66 0.61 0.67 0.64 0.71
0.98 1.17 1.05 0.91 0.85 1.18 1.22 1.24 1.46 1.49 1.31 1.29 1.19 1.41 1.18 1.00 0.92 0.95 0.92 0.73 0.71 0.62 0.44 0.63 1.17 0.80 0.51 0.33 0.39 0.50 0.55 0.68 0.86 0.78 0.69 0.69 0.62 0.61 0.63 0.57 0.62 0.80 0.79
1.21 1.50 1.15 1.08 0.87 0.81 0.97 0.99 1.12 1.31 1.48 1.53 1.55 1.66 1.35 1.15 0.95 0.82 0.80 0.84 0.60 0.42 0.32 0.28 0.54 0.92 0.72 0.52 0.37 0.35 0.45 0.57 0.71 1.04 0.84 0.62 0.64 0.59 0.60 0.57 0.52 0.51 0.68
0.60 1.16 1.33 1.29 1.07 0.91 0.80 0.83 0.71 0.69 0.60 0.78 0.55 0.47 0.59 0.51 0.51 0.61 0.53 0.40 0.39 0.23 0.15 0.16 0.21 0.45 0.72 0.79 0.50 0.38 0.28 0.35 0.68 0.77 1.07 0.82 0.67 0.62 0.59 0.55 0.60 0.53 0.50
0.86 1.03 1.31 1.12 1.20 1.15 1.11 1.31 1.38 1.06 0.78 0.65 0.71 0.44 0.41 0.40 0.31 0.39 0.40 0.34 0.38 0.30 0.27 0.23 0.18 0.18 0.32 0.65 0.80 0.61 0.55 0.37 0.46 0.72 0.76 1.06 0.84 0.70 0.75 0.69 0.63 0.74 0.84
0.83 1.01 1.26 1.22 1.12 1.23 1.14 1.16 1.39 1.61 1.57 1.08 0.93 0.81 0.65 0.48 0.44 0.50 0.65 0.55 0.45 0.32 0.33 0.28 0.20 0.19 0.23 0.36 0.52 0.71 0.73 0.50 0.45 0.56 0.72 0.74 0.95 1.00 0.84 0.88 0.98 0.88 0.87
0.46 0.88 1.36 1.51 1.27 1.28 1.36 1.38 1.48 1.49 1.80 1.86 1.23 0.96 0.73 0.61 0.64 0.61 0.68 0.86 0.73 0.48 0.28 0.18 0.13 0.21 0.27 0.33 0.52 0.70 0.76 0.72 0.56 0.73 0.80 0.88 0.92 1.06 1.20 0.95 0.78 0.85 0.96
0.39 0.47 0.59 1.00 1.16 1.28 1.54 1.76 1.59 1.37 1.39 1.53 1.29 0.99 0.83 0.59 0.67 0.67 0.61 0.65 0.73 0.64 0.36 0.22 0.19 0.16 0.18 0.21 0.20 0.29 0.57 0.80 0.95 0.78 0.71 0.92 0.86 0.98 1.11 1.26 1.03 0.71 0.68
0.74 0.80 0.72 0.95 1.23 1.53 1.57 1.59 1.35 1.20 1.28 1.36 1.58 1.50 1.09 0.70 0.67 0.79 0.78 0.79 0.83 0.82 0.67 0.38 0.24 0.15 0.19 0.23 0.24 0.23 0.21 0.32 0.33 0.50 0.59 0.62 0.79 0.85 0.89 0.98 1.43 1.67 1.23
1.06 1.02 1.03 1.03 0.84 0.98 1.32 1.61 1.66 1.58 1.67 1.71 1.77 1.55 1.18 1.08 1.11 1.09 1.13 1.12 1.02 1.03 0.89 0.57 0.34 0.27 0.26 0.28 0.26 0.28 0.23 0.14 0.18 0.27 0.37 0.47 0.56 0.79 0.97 0.90 0.84 1.17 1.90
1.64 1.50 1.19 1.00 0.80 0.67 0.83 1.43 1.75 1.61 1.40 1.64 1.93 1.91 1.56 1.38 1.35 1.29 1.24 1.13 0.95 0.91 0.99 0.78 0.54 0.40 0.30 0.25 0.30 0.39 0.38 0.26 0.20 0.29 0.29 0.36 0.44 0.47 0.67 1.00 0.95 0.78 0.88
0.79 0.83 0.83 0.82 0.84 0.61 0.53 0.72 1.18 1.69 1.56 1.37 1.57 1.86 1.62 1.41 1.25 1.20 1.11 0.91 0.78 0.75 0.87 0.90 0.69 0.51 0.44 0.37 0.40 0.51 0.50 0.26 0.17 0.26 0.22 0.29 0.33 0.41 0.49 0.65 1.06 1.19 0.90
0.36 0.43 0.63 0.78 1.00 0.93 0.95 0.92 0.99 1.07 1.47 1.45 1.35 1.34 1.51 1.45 1.09 0.94 0.92 0.96 1.00 0.93 0.76 0.78 0.72 0.62 0.50 0.47 0.73 0.61 0.43 0.35 0.32 0.31 0.39 0.49 0.66 0.71 0.83 0.79 0.84 1.05 1.29
0.66 0.53 0.49 0.48 0.83 1.20 0.89 0.80 0.77 1.04 1.24 1.46 1.46 1.45 1.21 1.49 1.50 1.28 1.14 0.94 0.93 1.04 1.08 0.94 0.88 0.81 0.77 0.80 0.88 0.81 0.82 0.71 0.79 0.91 0.78 0.70 0.81 0.81 0.93 1.36 1.37 1.40 1.28
1.07 0.86 0.94 0.78 0.73 1.02 1.43 1.04 0.88 0.69 0.89 1.10 1.14 1.11 1.51 1.74 1.29 1.31 1.38 1.41 1.35 1.22 1.10 1.09 0.98 0.88 0.72 0.70 0.76 0.90 0.93 1.05 1.14 0.91 0.94 1.01 0.84 0.83 0.85 0.88 1.41 1.48 1.49
1.43 1.48 1.28 1.26 1.21 1.17 1.65 1.13 1.18 1.06 0.94 0.79 0.90 1.00 0.94 1.63 1.95 1.38 1.50 1.57 1.72 1.91 1.63 1.41 1.25 1.29 1.34 1.38 1.40 1.35 1.25 1.20 1.11 0.98 1.17 1.29 1.11 1.11 1.10 1.28 1.46 1.08 1.26
2.00 1.92 1.59 1.41 1.18 1.14 1.27 1.49 1.60 1.26 1.14 0.95 0.85 0.90 0.97 1.05 1.70 1.75 1.40 1.58 1.71 2.00 2.41 2.21 2.04 2.06 2.05 1.80 1.42 1.43 1.59 1.75 1.75 1.71 1.80 1.94 1.49 1.38 1.22 1.18 1.61 1.15 1.04
1.92 1.92 1.72 1.41 1.21 1.11 1.46 1.36 1.41 1.10 1.28 1.20 1.04 1.10 1.06 0.89 1.50 1.72 1.36 1.51 1.61 1.88 2.47 2.37 2.19 2.24 2.22 2.29 1.86 1.65 1.96 2.26 2.65 2.42 2.26 2.26 2.07 1.89 1.81 1.64 1.55 1.47 1.19
1.82 1.56 1.62 1.56 1.61 1.26 1.64 1.52 1.51 1.13 1.03 1.12 1.07 1.18 1.78 1.30 1.36 1.15 1.01 1.02 1.48 1.91 1.79 1.97 1.99 2.06 2.15 2.45 2.68 2.17 2.14 2.54 2.77 2.70 2.25 2.30 2.18 2.22 2.44 1.85 1.39 1.27 1.17

GFSMA_prec_precacc_174.txt.gz
Total_Precipitation_Accumulation
0.62 0.70 0.50 0.49 0.66 0.72 0.90 0.96 0.84 0.84 0.97 0.86 0.86 0.93 0.73 0.55 0.71 0.76 0.76 1.03 1.36 1.63 1.19 1.44 1.24 1.44 1.47 1.33 1.23 1.17 1.16 1.18 0.93 0.78 0.57 0.52 0.63 0.67 0.60 0.36 0.41 0.36 0.35
0.50 0.46 0.39 0.41 0.38 0.53 0.96 1.04 1.00 1.09 1.12 1.13 1.26 1.21 1.24 1.18 1.04 1.08 0.95 0.90 0.98 1.38 1.83 1.41 1.76 1.33 1.44 1.50 1.72 1.44 1.22 1.20 1.07 0.96 0.67 0.54 0.67 0.78 0.77 0.77 0.54 0.45 0.40
0.55 0.37 0.31 0.30 0.35 0.49 0.91 1.00 1.34 1.57 1.40 1.13 1.19 1.24 1.23 1.25 1.48 1.72 1.73 1.72 2.03 2.04 2.80 2.38 2.38 1.66 1.89 1.84 1.80 2.01 1.92 1.98 1.49 1.11 0.76 0.59 0.55 0.65 0.71 0.64 0.67 0.52 0.39
0.82 0.86 0.66 0.50 0.43 0.80 1.05 0.85 0.89 1.38 1.27 0.97 0.89 1.23 1.40 1.64 1.70 1.97 2.14 1.68 1.52 1.29 1.71 2.64 2.79 3.22 2.75 2.76 2.58 2.31 2.51 2.34 1.87 1.32 0.88 0.58 0.51 0.67 0.70 0.66 0.61 0.66 0.54
0.81 0.80 0.84 0.90 0.98 1.21 1.22 1.18 1.13 1.07 1.09 0.83 0.75 1.01 1.32 1.72 1.97 2.00 1.81 1.47 1.27 1.42 1.35 1.63 1.72 2.13 2.58 2.61 3.14 3.05 2.50 2.38 1.85 1.16 0.89 0.61 0.45 0.67 0.63 0.60 0.58 0.57 0.61
1.12 0.59 0.50 0.59 0.99 1.21 1.42 1.63 1.55 1.26 1.29 1.20 1.22 1.17 1.12 1.29 1.48 1.71 1.49 1.66 1.63 1.93 1.92 2.35 2.41 2.35 2.17 2.14 2.11 1.99 1.54 1.06 0.91 1.04 1.05 0.81 0.61 0.76 0.65 0.58 0.58 0.57 0.62
1.90 1.04 0.56 0.32 0.43 0.50 0.61 1.05 1.50 1.44 1.51 1.84 2.51 2.43 1.86 1.70 2.06 2.41 2.97 2.95 3.36 3.33 3.32 2.77 1.83 1.41 1.09 1.28 1.48 1.59 1.25 0.92 0.67 0.63 0.78 0.81 0.79 0.68 0.65 0.60 0.53 0.55 0.59
1.22 1.45 0.85 0.61 0.43 0.52 0.58 0.72 1.10 1.21 1.24 1.37 1.64 1.67 1.71 1.36 1.07 0.86 0.89 0.91 0.81 0.84 0.78 1.29 1.18 0.52 0.35 0.36 0.57 0.80 0.84 0.94 0.75 0.66 0.75 0.70 0.68 0.74 0.66 0.61 0.67 0.64 0.71
0.99 1.18 1.06 0.92 0.85 1.18 1.22 1.24 1.46 1.49 1.31 1.29 1.19 1.41 1.18 1.00 0.92 0.95 0.93 0.73 0.71 0.62 0.44 0.63 1.17 0.80 0.51 0.33 0.39 0.50 0.55 0.68 0.86 0.79 0.69 0.69 0.62 0.61 0.63 0.57 0.62 0.80 0.79
1.21 1.51 1.17 1.09 0.87 0.81 0.97 0.99 1.12 1.31 1.48 1.53 1.55 1.66 1.35 1.15 0.95 0.82 0.80 0.84 0.60 0.42 0.32 0.28 0.54 0.92 0.72 0.52 0.37 0.35 0.45 0.57 0.71 1.04 0.84 0.62 0.64 0.59 0.60 0.57 0.52 0.51 0.68
0.60 1.16 1.33 1.29 1.07 0.91 0.80 0.83 0.71 0.69 0.60 0.78 0.55 0.47 0.59 0.51 0.51 0.61 0.53 0.40 0.39 0.23 0.15 0.16 0.21 0.45 0.72 0.79 0.50 0.38 0.28 0.35 0.68 0.77 1.07 0.82 0.67 0.62 0.59 0.55 0.60 0.53 0.50
0.86 1.03 1.31 1.12 1.20 1.15 1.11 1.31 1.38 1.06 0.78 0.65 0.71 0.44 0.41 0.40 0.31 0.39 0.40 0.34 0.38 0.30 0.27 0.23 0.18 0.18 0.32 0.65 0.80 0.61 0.55 0.37 0.46 0.72 0.76 1.06 0.84 0.70 0.75 0.69 0.63 0.74 0.84
0.83 1.01 1.26 1.22 1.12 1.23 1.14 1.16 1.39 1.61 1.57 1.08 0.93 0.81 0.65 0.48 0.44 0.50 0.65 0.55 0.45 0.32 0.33 0.28 0.20 0.19 0.23 0.36 0.52 0.71 0.73 0.50 0.45 0.56 0.72 0.74 0.95 1.00 0.85 0.88 0.98 0.88 0.87
0.46 0.88 1.36 1.51 1.27 1.28 1.36 1.38 1.48 1.49 1.80 1.86 1.23 0.96 0.73 0.61 0.64 0.61 0.68 0.86 0.73 0.48 0.28 0.18 0.13 0.21 0.27 0.33 0.52 0.70 0.76 0.72 0.56 0.73 0.80 0.88 0.92 1.06 1.20 0.95 0.78 0.85 0.96
0.39 0.47 0.59 1.00 1.16 1.28 1.54 1.76 1.59 1.37 1.39 1.53 1.29 0.99 0.83 0.59 0.67 0.67 0.61 0.65 0.73 0.64 0.36 0.22 0.19 0.16 0.18 0.21 0.20 0.29 0.57 0.80 0.95 0.78 0.71 0.92 0.86 0.98 1.11 1.26 1.03 0.71 0.68
0.74 0.80 0.72 0.95 1.23 1.53 1.57 1.59 1.35 1.20 1.28 1.36 1.58 1.50 1.09 0.70 0.67 0.79 0.78 0.79 0.83 0.83 0.68 0.38 0.24 0.15 0.19 0.23 0.24 0.23 0.21 0.32 0.33 0.50 0.59 0.62 0.79 0.85 0.90 0.98 1.43 1.67 1.23
1.06 1.02 1.03 1.03 0.84 0.98 1.32 1.61 1.66 1.58 1.67 1.71 1.77 1.55 1.18 1.08 1.11 1.09 1.13 1.12 1.02 1.03 0.89 0.57 0.34 0.27 0.26 0.28 0.26 0.29 0.23 0.14 0.18 0.27 0.37 0.47 0.56 0.79 0.97 0.90 0.84 1.17 1.91
1.64 1.50 1.19 1.00 0.80 0.67 0.83 1.43 1.75 1.61 1.40 1.64 1.93 1.91 1.56 1.38 1.35 1.29 1.24 1.13 0.95 0.91 0.99 0.78 0.54 0.40 0.30 0.25 0.30 0.39 0.39 0.27 0.20 0.29 0.29 0.36 0.44 0.47 0.67 1.00 0.95 0.78 0.88
0.79 0.83 0.83 0.82 0.84 0.61 0.53 0.72 1.18 1.69 1.56 1.37 1.57 1.86 1.62 1.41 1.25 1.20 1.11 0.91 0.78 0.75 0.87 0.90 0.69 0.51 0.44 0.37 0.41 0.52 0.50 0.27 0.17 0.26 0.22 0.29 0.33 0.41 0.50 0.65 1.06 1.19 0.91
0.36 0.43 0.63 0.78 1.00 0.93 0.95 0.92 0.99 1.07 1.47 1.45 1.35 1.34 1.51 1.45 1.09 0.94 0.92 0.96 1.00 0.93 0.76 0.78 0.72 0.62 0.50 0.47 0.73 0.61 0.44 0.36 0.32 0.31 0.39 0.49 0.66 0.71 0.83 0.79 0.84 1.05 1.29
0.66 0.53 0.49 0.48 0.83 1.20 0.89 0.80 0.77 1.04 1.24 1.46 1.46 1.45 1.21 1.49 1.50 1.28 1.14 0.94 0.94 1.05 1.09 0.95 0.88 0.82 0.78 0.82 0.89 0.81 0.83 0.72 0.80 0.91 0.78 0.70 0.81 0.81 0.93 1.36 1.38 1.41 1.28
1.07 0.86 0.94 0.78 0.73 1.02 1.43 1.04 0.88 0.69 0.90 1.10 1.14 1.11 1.51 1.74 1.29 1.31 1.38 1.41 1.35 1.23 1.12 1.10 0.99 0.89 0.73 0.72 0.77 0.90 0.93 1.05 1.15 0.91 0.94 1.01 0.84 0.83 0.85 0.88 1.42 1.49 1.49
1.43 1.48 1.28 1.26 1.21 1.17 1.65 1.13 1.18 1.06 0.94 0.79 0.90 1.00 0.94 1.63 1.96 1.38 1.51 1.58 1.72 1.91 1.64 1.42 1.26 1.30 1.34 1.38 1.40 1.35 1.25 1.20 1.11 0.99 1.17 1.29 1.11 1.11 1.10 1.28 1.46 1.09 1.27
2.00 1.93 1.59 1.41 1.18 1.14 1.27 1.49 1.61 1.26 1.14 0.95 0.85 0.90 0.97 1.05 1.70 1.75 1.40 1.59 1.72 2.01 2.41 2.21 2.05 2.06 2.05 1.80 1.42 1.43 1.59 1.75 1.75 1.71 1.80 1.95 1.49 1.39 1.22 1.18 1.61 1.15 1.04
1.92 1.93 1.72 1.42 1.21 1.11 1.46 1.36 1.41 1.11 1.28 1.20 1.04 1.10 1.06 0.89 1.50 1.72 1.36 1.52 1.63 1.90 2.47 2.37 2.19 2.24 2.22 2.29 1.86 1.65 1.96 2.26 2.65 2.43 2.27 2.26 2.07 1.89 1.81 1.65 1.55 1.47 1.19
1.82 1.57 1.63 1.57 1.61 1.26 1.64 1.52 1.52 1.13 1.03 1.12 1.07 1.18 1.78 1.30 1.36 1.15 1.01 1.02 1.49 1.91 1.79 1.98 2.00 2.07 2.15 2.45 2.68 2.17 2.14 2.54 2.77 2.71 2.25 2.30 2.19 2.22 2.44 1.85 1.39 1.27 1.17